DW1157 Weather Reports


Display with metric or nautical units.
time (UTC)temp
F
wind
direction
speed
MPH
gust
MPH
rain 1hr
in
rain 24hr
in
rain mn
in
humidity
%
barometer
mb
20260507105518 81 34 0.0 0.0 0.00 0.00 0.00 91 1004.0
20260507105429 81 15 0.0 0.0 0.00 0.00 0.00 91 1004.0
20260507105355 81 15 0.0 0.0 0.00 0.00 0.00 91 1004.0
20260507105254 81 30 0.0 0.0 0.00 0.00 0.00 91 1004.0
20260507105129 81 40 0.0 0.0 0.00 0.00 0.00 91 1004.0
20260507105039 81 40 0.0 0.0 0.00 0.00 0.00 91 1004.0
20260507104929 81 44 0.0 0.0 0.00 0.00 0.00 91 1004.0
20260507104826 81 36 0.0 0.0 0.00 0.00 0.00 91 1004.0
20260507104729 81 40 0.0 0.0 0.00 0.00 0.00 91 1004.0
20260507104619 81 38 0.0 0.0 0.00 0.00 0.00 91 1004.4
20260507104544 81 18 0.0 0.0 0.00 0.00 0.00 91 1004.4
20260507104457 81 51 0.0 0.0 0.00 0.00 0.00 91 1004.4
20260507104340 81 51 0.0 0.0 0.00 0.00 0.00 91 1004.4
20260507104241 81 51 0.0 0.0 0.00 0.00 0.00 91 1004.4
20260507104143 81 29 0.0 0.0 0.00 0.00 0.00 91 1004.4
20260507104021 81 18 0.0 0.0 0.00 0.00 0.00 91 1004.4
20260507103932 81 18 0.0 0.0 0.00 0.00 0.00 91 1004.4
20260507103836 81 32 0.0 0.0 0.00 0.00 0.00 91 1004.4
20260507103729 81 32 0.0 0.0 0.00 0.00 0.00 91 1004.4
20260507103625 81 28 0.0 0.0 0.00 0.00 0.00 91 1004.4
20260507103529 81 44 0.0 0.0 0.00 0.00 0.00 91 1004.4
20260507103424 81 27 0.0 0.0 0.00 0.00 0.00 91 1004.4
20260507103348 81 94 0.0 0.0 0.00 0.00 0.00 91 1004.4
20260507103220 81 33 0.0 0.0 0.00 0.00 0.00 91 1004.4
20260507103135 81 89 0.0 0.0 0.00 0.00 0.00 91 1004.4
20260507103036 81 90 1.0 0.0 0.00 0.00 0.00 91 1004.0
20260507102936 81 19 1.0 0.0 0.00 0.00 0.00 91 1004.0
20260507102827 81 19 1.0 0.0 0.00 0.00 0.00 90 1004.0
20260507102728 81 44 1.0 0.0 0.00 0.00 0.00 90 1004.0
20260507102622 81 34 0.0 0.0 0.00 0.00 0.00 90 1004.0
20260507102549 81 345 0.0 0.0 0.00 0.00 0.00 90 1004.0
20260507102419 81 35 0.0 0.0 0.00 0.00 0.00 90 1004.0
20260507102347 81 44 0.0 0.0 0.00 0.00 0.00 90 1004.0
20260507102224 81 23 0.0 0.0 0.00 0.00 0.00 90 1004.0
20260507102136 81 34 0.0 0.0 0.00 0.00 0.00 90 1004.0
20260507102040 81 61 0.0 0.0 0.00 0.00 0.00 90 1004.0
20260507101918 81 34 0.0 0.0 0.00 0.00 0.00 90 1004.0
20260507101834 81 34 0.0 0.0 0.00 0.00 0.00 90 1004.0
20260507101735 81 41 0.0 0.0 0.00 0.00 0.00 90 1004.0
20260507101646 81 21 0.0 0.0 0.00 0.00 0.00 90 1005.0
20260507101530 81 49 0.0 0.0 0.00 0.00 0.00 90 1005.0
20260507101426 81 27 0.0 0.0 0.00 0.00 0.00 90 1005.0
20260507101318 81 59 0.0 0.0 0.00 0.00 0.00 90 1005.0
20260507101246 81 29 0.0 0.0 0.00 0.00 0.00 90 1005.0
20260507101207 81 43 0.0 0.0 0.00 0.00 0.00 90 1005.0
20260507101021 81 28 0.0 0.0 0.00 0.00 0.00 90 1005.0
20260507100934 81 28 0.0 0.0 0.00 0.00 0.00 90 1005.0
20260507100835 81 25 0.0 0.0 0.00 0.00 0.00 90 1005.0
20260507100734 81 25 0.0 0.0 0.00 0.00 0.00 90 1005.0
20260507100627 81 25 0.0 0.0 0.00 0.00 0.00 90 1005.0
20260507100529 81 25 0.0 0.0 0.00 0.00 0.00 90 1005.0
20260507100421 81 23 0.0 0.0 0.00 0.00 0.00 90 1005.0
20260507100348 81 108 0.0 0.0 0.00 0.00 0.00 90 1005.0
20260507100221 81 24 0.0 0.0 0.00 0.00 0.00 90 1005.0
20260507100131 81 24 0.0 0.0 0.00 0.00 0.00 90 1005.0
20260507100042 81 23 0.0 0.0 0.00 0.00 0.00 90 1004.1
20260507100007 81 24 0.0 0.0 0.00 0.00 0.00 90 1004.1
20260507095839 81 24 0.0 0.0 0.00 0.00 0.00 90 1004.1
20260507095730 81 24 0.0 0.0 0.00 0.00 0.00 90 1004.1
20260507095654 81 24 0.0 0.0 0.00 0.00 0.00 90 1004.1
20260507095529 81 24 0.0 0.0 0.00 0.00 0.00 90 1004.1
20260507095432 81 24 0.0 0.0 0.00 0.00 0.00 90 1004.1
20260507095326 81 24 0.0 0.0 0.00 0.00 0.00 90 1004.1
20260507095225 81 24 0.0 0.0 0.00 0.00 0.00 90 1004.1
20260507095127 81 24 0.0 0.0 0.00 0.00 0.00 90 1004.1
20260507095040 81 24 0.0 0.0 0.00 0.00 0.00 90 1004.1
20260507094942 81 59 0.0 0.0 0.00 0.00 0.00 90 1004.1
20260507094838 81 40 0.0 0.0 0.00 0.00 0.00 90 1004.1
20260507094729 81 26 0.0 0.0 0.00 0.00 0.00 90 1004.1
20260507094629 81 26 0.0 0.0 0.00 0.00 0.00 90 1003.9
20260507094529 81 40 0.0 0.0 0.00 0.00 0.00 90 1003.9
20260507094422 81 40 0.0 0.0 0.00 0.00 0.00 90 1003.9
20260507094322 81 49 0.0 0.0 0.00 0.00 0.00 90 1003.9
20260507094233 81 32 0.0 0.0 0.00 0.00 0.00 90 1003.9
20260507094141 81 350 0.0 0.0 0.00 0.00 0.00 90 1003.9
20260507094036 81 32 0.0 0.0 0.00 0.00 0.00 90 1003.9
20260507093926 81 49 0.0 0.0 0.00 0.00 0.00 90 1003.9
20260507093838 81 49 0.0 0.0 0.00 0.00 0.00 90 1003.9
20260507093727 81 53 0.0 0.0 0.00 0.00 0.00 90 1003.9
20260507093623 81 24 0.0 0.0 0.00 0.00 0.00 90 1003.9
20260507093525 81 41 0.0 0.0 0.00 0.00 0.00 90 1003.9
20260507093438 81 40 0.0 0.0 0.00 0.00 0.00 90 1003.9
20260507093317 81 21 0.0 0.0 0.00 0.00 0.00 90 1003.9
20260507093231 81 27 0.0 0.0 0.00 0.00 0.00 90 1003.9
20260507093158 81 32 0.0 0.0 0.00 0.00 0.00 90 1003.9
20260507093108 81 38 0.0 0.0 0.00 0.00 0.00 90 1004.0
20260507092939 81 17 0.0 0.0 0.00 0.00 0.00 90 1004.0
20260507092833 81 17 0.0 0.0 0.00 0.00 0.00 90 1004.0
20260507092757 81 23 0.0 0.0 0.00 0.00 0.00 90 1004.0
20260507092700 81 32 0.0 0.0 0.00 0.00 0.00 90 1004.0
20260507092531 81 19 0.0 0.0 0.00 0.00 0.00 90 1004.0
20260507092424 81 34 0.0 0.0 0.00 0.00 0.00 90 1004.0
20260507092328 81 53 0.0 0.0 0.00 0.00 0.00 90 1004.0
20260507092223 81 33 0.0 0.0 0.00 0.00 0.00 89 1004.0
20260507092145 82 44 0.0 0.0 0.00 0.00 0.00 89 1004.0
20260507092036 82 42 0.0 0.0 0.00 0.00 0.00 89 1004.0
20260507091932 82 28 0.0 0.0 0.00 0.00 0.00 89 1004.0
20260507091833 82 28 0.0 0.0 0.00 0.00 0.00 89 1004.0
20260507091746 82 28 0.0 0.0 0.00 0.00 0.00 89 1004.0
20260507091630 82 28 0.0 0.0 0.00 0.00 0.00 89 1004.5
20260507091529 82 27 0.0 0.0 0.00 0.00 0.00 89 1004.5
20260507091435 82 28 0.0 0.0 0.00 0.00 0.00 89 1004.5
20260507091328 82 27 0.0 0.0 0.00 0.00 0.00 89 1004.5
20260507091228 82 28 0.0 0.0 0.00 0.00 0.00 89 1004.5
20260507091138 82 27 0.0 0.0 0.00 0.00 0.00 89 1004.5
20260507091043 82 28 0.0 0.0 0.00 0.00 0.00 89 1004.5
20260507090955 82 30 0.0 0.0 0.00 0.00 0.00 89 1004.5
20260507090856 82 30 0.0 0.0 0.00 0.00 0.00 89 1004.5
20260507090732 82 23 0.0 0.0 0.00 0.00 0.00 89 1004.5
20260507090637 82 21 0.0 0.0 0.00 0.00 0.00 89 1004.5
20260507090529 82 22 0.0 0.0 0.00 0.00 0.00 89 1004.5
20260507090449 82 22 0.0 0.0 0.00 0.00 0.00 89 1004.5
20260507090321 82 22 0.0 0.0 0.00 0.00 0.00 89 1004.5
20260507090236 82 22 0.0 0.0 0.00 0.00 0.00 89 1004.5
20260507090157 82 22 0.0 0.0 0.00 0.00 0.00 89 1004.5
20260507090028 82 22 0.0 0.0 0.00 0.00 0.00 89 1004.0
20260507085934 82 22 0.0 0.0 0.00 0.00 0.00 89 1004.0
20260507085826 82 22 0.0 0.0 0.00 0.00 0.00 89 1004.0
20260507085717 82 22 0.0 0.0 0.00 0.00 0.00 89 1004.0
20260507085625 82 22 0.0 0.0 0.00 0.00 0.00 89 1004.0
20260507085536 82 22 0.0 0.0 0.00 0.00 0.00 89 1004.0
20260507085438 82 22 0.0 0.0 0.00 0.00 0.00 88 1004.0
20260507085350 82 22 0.0 0.0 0.00 0.00 0.00 88 1004.0
20260507085230 82 22 0.0 0.0 0.00 0.00 0.00 88 1004.0
20260507085130 82 22 0.0 0.0 0.00 0.00 0.00 88 1004.0
20260507085022 82 22 0.0 0.0 0.00 0.00 0.00 88 1004.0
20260507084929 82 22 0.0 0.0 0.00 0.00 0.00 88 1004.0
20260507084825 82 22 0.0 0.0 0.00 0.00 0.00 88 1004.0
20260507084724 82 22 0.0 0.0 0.00 0.00 0.00 88 1004.0
20260507084637 82 22 0.0 0.0 0.00 0.00 0.00 88 1004.0
20260507084540 82 22 0.0 0.0 0.00 0.00 0.00 88 1003.4
20260507084440 82 22 0.0 0.0 0.00 0.00 0.00 88 1003.4
20260507084343 82 22 0.0 0.0 0.00 0.00 0.00 88 1003.4
20260507084235 82 27 0.0 0.0 0.00 0.00 0.00 88 1003.4
20260507084135 82 27 0.0 0.0 0.00 0.00 0.00 88 1003.4
20260507084016 82 27 0.0 0.0 0.00 0.00 0.00 88 1003.4
20260507083917 82 27 0.0 0.0 0.00 0.00 0.00 88 1003.4
20260507083827 82 28 0.0 0.0 0.00 0.00 0.00 88 1003.4
20260507083744 82 28 0.0 0.0 0.00 0.00 0.00 88 1003.4
20260507083629 82 27 0.0 0.0 0.00 0.00 0.00 88 1003.4
20260507083520 82 30 0.0 0.0 0.00 0.00 0.00 88 1003.4
20260507083425 82 115 0.0 0.0 0.00 0.00 0.00 88 1003.4
20260507083337 82 132 0.0 0.0 0.00 0.00 0.00 88 1003.4
20260507083238 82 132 0.0 0.0 0.00 0.00 0.00 88 1003.4
20260507083129 82 107 0.0 0.0 0.00 0.00 0.00 88 1004.5
20260507083049 82 46 0.0 0.0 0.00 0.00 0.00 88 1004.5
20260507082953 82 46 0.0 0.0 0.00 0.00 0.00 88 1004.5
20260507082824 82 46 0.0 0.0 0.00 0.00 0.00 88 1004.5
20260507082746 82 94 0.0 0.0 0.00 0.00 0.00 88 1004.5
20260507082637 82 39 0.0 0.0 0.00 0.00 0.00 88 1004.5
20260507082539 82 10 0.0 0.0 0.00 0.00 0.00 87 1004.5
20260507082431 82 351 0.0 0.0 0.00 0.00 0.00 88 1004.5
20260507082330 82 120 0.0 0.0 0.00 0.00 0.00 88 1004.5
20260507082232 82 134 0.0 0.0 0.00 0.00 0.00 87 1004.5
20260507082131 82 134 0.0 0.0 0.00 0.00 0.00 87 1004.5
20260507082023 82 134 0.0 0.0 0.00 0.00 0.00 87 1004.5
20260507081928 82 134 0.0 0.0 0.00 0.00 0.00 87 1004.5
20260507081820 82 134 0.0 0.0 0.00 0.00 0.00 87 1004.5
20260507081744 82 134 0.0 0.0 0.00 0.00 0.00 87 1004.5
20260507081635 82 134 0.0 0.0 0.00 0.00 0.00 87 1004.5
20260507081558 82 134 0.0 0.0 0.00 0.00 0.00 87 1004.6
20260507081436 82 134 0.0 0.0 0.00 0.00 0.00 87 1004.6
20260507081328 82 207 0.0 0.0 0.00 0.00 0.00 87 1004.6
20260507081235 82 221 0.0 0.0 0.00 0.00 0.00 87 1004.6
20260507081130 82 221 0.0 0.0 0.00 0.00 0.00 87 1004.6
20260507081025 82 221 0.0 0.0 0.00 0.00 0.00 87 1004.6
20260507080927 82 221 0.0 0.0 0.00 0.00 0.00 87 1004.6
20260507080823 82 221 0.0 0.0 0.00 0.00 0.00 87 1004.6
20260507080719 82 221 0.0 0.0 0.00 0.00 0.00 87 1004.6
20260507080642 82 221 0.0 0.0 0.00 0.00 0.00 87 1004.6
20260507080545 82 221 0.0 0.0 0.00 0.00 0.00 87 1004.6
20260507080417 82 221 0.0 0.0 0.00 0.00 0.00 87 1004.6
20260507080331 82 221 0.0 0.0 0.00 0.00 0.00 87 1004.6
20260507080239 82 221 0.0 0.0 0.00 0.00 0.00 87 1004.6
20260507080130 82 221 0.0 0.0 0.00 0.00 0.00 87 1004.9
20260507080030 82 221 0.0 0.0 0.00 0.00 0.00 87 1004.9
20260507075930 82 221 0.0 0.0 0.00 0.00 0.00 87 1004.9
20260507075852 82 221 0.0 0.0 0.00 0.00 0.00 87 1004.9
20260507075724 82 221 0.0 0.0 0.00 0.00 0.00 87 1004.9
20260507075646 82 221 0.0 0.0 0.00 0.00 0.00 87 1004.9
20260507075537 82 221 0.0 0.0 0.00 0.00 0.00 87 1004.9
20260507075442 82 221 0.0 0.0 0.00 0.00 0.00 87 1004.9
20260507075334 82 221 0.0 0.0 0.00 0.00 0.00 87 1004.9
20260507075258 82 221 0.0 0.0 0.00 0.00 0.00 87 1004.9
20260507075137 82 221 0.0 0.0 0.00 0.00 0.00 87 1004.9
20260507075033 82 221 0.0 0.0 0.00 0.00 0.00 87 1004.9
20260507074933 82 221 0.0 0.0 0.00 0.00 0.00 87 1004.9
20260507074825 82 208 0.0 0.0 0.00 0.00 0.00 87 1004.9
20260507074746 82 207 0.0 0.0 0.00 0.00 0.00 87 1004.9
20260507074638 82 211 0.0 0.0 0.00 0.00 0.00 87 1004.9
20260507074532 82 211 0.0 0.0 0.00 0.00 0.00 87 1004.6
20260507074436 82 211 0.0 0.0 0.00 0.00 0.00 87 1004.6
20260507074329 82 211 0.0 0.0 0.00 0.00 0.00 87 1004.6
20260507074231 82 211 0.0 0.0 0.00 0.00 0.00 88 1004.6
20260507074121 82 209 0.0 0.0 0.00 0.00 0.00 88 1004.6
20260507074046 82 209 0.0 0.0 0.00 0.00 0.00 88 1004.6
20260507073941 82 99 0.0 0.0 0.00 0.00 0.00 88 1004.6
20260507073902 82 77 0.0 0.0 0.00 0.00 0.00 88 1004.6
20260507073721 82 78 0.0 0.0 0.00 0.00 0.00 88 1004.6
20260507073616 82 78 0.0 0.0 0.00 0.00 0.00 88 1004.6
20260507073543 82 78 0.0 0.0 0.00 0.00 0.00 88 1004.6
20260507073436 82 78 0.0 0.0 0.00 0.00 0.00 88 1004.6
20260507073329 82 78 0.0 0.0 0.00 0.00 0.00 88 1004.6
20260507073230 82 78 0.0 0.0 0.00 0.00 0.00 87 1004.6
20260507073126 82 78 0.0 0.0 0.00 0.00 0.00 88 1004.6
20260507073026 82 78 0.0 0.0 0.00 0.00 0.00 88 1004.6
20260507072926 82 77 0.0 0.0 0.00 0.00 0.00 87 1004.6
20260507072822 82 78 0.0 0.0 0.00 0.00 0.00 87 1004.6
20260507072746 82 78 0.0 0.0 0.00 0.00 0.00 87 1004.6
20260507072703 82 78 0.0 0.0 0.00 0.00 0.00 87 1004.6
20260507072543 82 78 0.0 0.0 0.00 0.00 0.00 87 1004.6
20260507072435 82 78 0.0 0.0 0.00 0.00 0.00 87 1004.6
20260507072328 82 77 0.0 0.0 0.00 0.00 0.00 87 1004.6
20260507072233 82 78 0.0 0.0 0.00 0.00 0.00 87 1004.6
20260507072125 82 78 0.0 0.0 0.00 0.00 0.00 87 1004.6
20260507072050 82 78 0.0 0.0 0.00 0.00 0.00 87 1004.6
20260507072005 82 78 0.0 0.0 0.00 0.00 0.00 87 1004.6
20260507071904 82 78 0.0 0.0 0.00 0.00 0.00 87 1004.6
20260507071807 82 78 0.0 0.0 0.00 0.00 0.00 87 1004.6
20260507071637 82 78 0.0 0.0 0.00 0.00 0.00 87 1004.6
20260507071558 82 78 0.0 0.0 0.00 0.00 0.00 87 1004.6
20260507071429 82 77 0.0 0.0 0.00 0.00 0.00 87 1004.6
20260507071353 82 78 0.0 0.0 0.00 0.00 0.00 87 1004.6
20260507071226 82 78 0.0 0.0 0.00 0.00 0.00 87 1004.6
20260507071130 82 78 0.0 0.0 0.00 0.00 0.00 87 1004.6
20260507071044 82 78 0.0 0.0 0.00 0.00 0.00 87 1004.6
20260507070928 82 78 0.0 0.0 0.00 0.00 0.00 87 1004.6
20260507070820 82 78 0.0 0.0 0.00 0.00 0.00 87 1004.6
20260507070743 82 78 0.0 0.0 0.00 0.00 0.00 87 1004.6
20260507070637 82 78 0.0 0.0 0.00 0.00 0.00 87 1004.6
20260507070522 82 216 0.0 0.0 0.00 0.00 0.00 87 1004.6
20260507070436 82 216 0.0 0.0 0.00 0.00 0.00 87 1004.6
20260507070338 82 216 0.0 0.0 0.00 0.00 0.00 87 1004.6
20260507070229 82 122 0.0 0.0 0.00 0.00 0.00 87 1004.6
20260507070156 82 122 0.0 0.0 0.00 0.00 0.00 87 1004.6
20260507070047 82 122 0.0 0.0 0.00 0.00 0.00 87 1004.5
20260507065928 82 122 0.0 0.0 0.00 0.00 0.00 87 1004.5
20260507065840 82 122 0.0 0.0 0.00 0.00 0.00 87 1004.5
20260507065741 82 122 0.0 0.0 0.00 0.00 0.00 87 1004.5
20260507065658 82 122 0.0 0.0 0.00 0.00 0.00 87 1004.5
20260507065539 82 122 0.0 0.0 0.00 0.00 0.00 87 1004.5
20260507065430 82 122 0.0 0.0 0.00 0.00 0.00 87 1004.5
20260507065327 82 122 0.0 0.0 0.00 0.00 0.00 87 1004.5
20260507065248 82 122 0.0 0.0 0.00 0.00 0.00 87 1004.5
20260507065148 82 122 0.0 0.0 0.00 0.00 0.00 87 1004.5
20260507065042 82 122 0.0 0.0 0.00 0.00 0.00 87 1004.5
20260507065006 82 163 0.0 0.0 0.00 0.00 0.00 87 1004.5
20260507064845 83 163 0.0 0.0 0.00 0.00 0.00 87 1004.5
20260507064806 83 163 0.0 0.0 0.00 0.00 0.00 87 1004.5
20260507064642 83 163 0.0 0.0 0.00 0.00 0.00 86 1004.5
20260507064547 83 172 0.0 0.0 0.00 0.00 0.00 86 1004.6
20260507064419 83 172 0.0 0.0 0.00 0.00 0.00 87 1004.6
20260507064332 83 172 0.0 0.0 0.00 0.00 0.00 87 1004.6
20260507064231 83 171 0.0 0.0 0.00 0.00 0.00 87 1004.6
20260507064148 83 171 0.0 0.0 0.00 0.00 0.00 87 1004.6
20260507064033 83 172 0.0 0.0 0.00 0.00 0.00 87 1004.6
20260507063924 83 172 0.0 0.0 0.00 0.00 0.00 87 1004.6
20260507063826 83 172 0.0 0.0 0.00 0.00 0.00 87 1004.6
20260507063737 83 171 0.0 0.0 0.00 0.00 0.00 87 1004.6
20260507063639 83 172 0.0 0.0 0.00 0.00 0.00 87 1004.6
20260507063531 83 171 0.0 0.0 0.00 0.00 0.00 87 1004.6
20260507063424 83 142 0.0 0.0 0.00 0.00 0.00 87 1004.6
20260507063329 83 142 0.0 0.0 0.00 0.00 0.00 87 1004.6
20260507063220 83 212 0.0 0.0 0.00 0.00 0.00 87 1004.6
20260507063147 83 100 0.0 0.0 0.00 0.00 0.00 87 1004.6
20260507063022 83 96 0.0 0.0 0.00 0.00 0.00 87 1004.5
20260507062938 83 47 0.0 0.0 0.00 0.00 0.00 87 1004.5
20260507062900 83 47 0.0 0.0 0.00 0.00 0.00 87 1004.5
20260507062759 83 34 0.0 0.0 0.00 0.00 0.00 87 1004.5
20260507062633 83 183 0.0 0.0 0.00 0.00 0.00 87 1004.5
20260507062530 83 182 0.0 0.0 0.00 0.00 0.00 87 1004.5
20260507062431 83 78 0.0 0.0 0.00 0.00 0.00 87 1004.5
20260507062348 83 78 0.0 0.0 0.00 0.00 0.00 87 1004.5
20260507062235 83 78 0.0 0.0 0.00 0.00 0.00 87 1004.5
20260507062127 83 78 0.0 0.0 0.00 0.00 0.00 87 1004.5
20260507062020 83 78 0.0 0.0 0.00 0.00 0.00 87 1004.5
20260507061927 83 78 0.0 0.0 0.00 0.00 0.00 87 1004.5
20260507061822 83 78 0.0 0.0 0.00 0.00 0.00 87 1004.5
20260507061747 83 78 0.0 0.0 0.00 0.00 0.00 87 1004.5
20260507061638 83 78 0.0 0.0 0.00 0.00 0.00 87 1004.5
20260507061530 83 78 0.0 0.0 0.00 0.00 0.00 87 1004.6
20260507061429 83 78 0.0 0.0 0.00 0.00 0.00 87 1004.6
20260507061345 83 78 0.0 0.0 0.00 0.00 0.00 87 1004.6
20260507061249 83 78 0.0 0.0 0.00 0.00 0.00 87 1004.6
20260507061211 83 78 0.0 0.0 0.00 0.00 0.00 87 1004.6
20260507061027 83 78 0.0 0.0 0.00 0.00 0.00 87 1004.6
20260507060940 83 78 0.0 0.0 0.00 0.00 0.00 87 1004.6
20260507060824 83 78 0.0 0.0 0.00 0.00 0.00 87 1004.6
20260507060734 83 45 0.0 0.0 0.00 0.00 0.00 87 1004.6
20260507060640 83 45 0.0 0.0 0.00 0.00 0.00 87 1004.6
20260507060541 83 45 0.0 0.0 0.00 0.00 0.00 87 1004.6
20260507060442 83 45 0.0 0.0 0.00 0.00 0.00 87 1004.6
20260507060320 83 90 0.0 0.0 0.00 0.00 0.00 87 1004.6
20260507060216 83 90 0.0 0.0 0.00 0.00 0.00 87 1004.6
20260507060144 83 63 0.0 0.0 0.00 0.00 0.00 87 1004.6
20260507060034 83 63 0.0 0.0 0.00 0.00 0.00 87 1004.8
20260507055934 83 63 0.0 0.0 0.00 0.00 0.00 87 1004.8
20260507055828 83 63 0.0 0.0 0.00 0.00 0.00 87 1004.8
20260507055720 83 63 0.0 0.0 0.00 0.00 0.00 87 1004.8
20260507055644 83 63 0.0 0.0 0.00 0.00 0.00 87 1004.8
20260507055605 83 63 0.0 0.0 0.00 0.00 0.00 87 1004.8
20260507055440 83 56 0.0 0.0 0.00 0.00 0.00 87 1004.8
20260507055342 83 56 0.0 0.0 0.00 0.00 0.00 87 1004.8
20260507055241 83 56 0.0 0.0 0.00 0.00 0.00 87 1004.8
20260507055203 83 56 0.0 0.0 0.00 0.00 0.00 87 1004.8
20260507055035 83 59 0.0 0.0 0.00 0.00 0.00 87 1004.8
20260507054928 83 71 0.0 0.0 0.00 0.00 0.00 86 1004.8
20260507054828 83 221 0.0 0.0 0.00 0.00 0.00 86 1004.8
20260507054725 83 106 0.0 0.0 0.00 0.00 0.00 86 1004.8
20260507054645 83 94 0.0 0.0 0.00 0.00 0.00 86 1004.8
20260507054538 83 96 0.0 0.0 0.00 0.00 0.00 86 1004.8
20260507054443 83 97 0.0 0.0 0.00 0.00 0.00 86 1004.8
20260507054335 83 97 0.0 0.0 0.00 0.00 0.00 86 1004.8
20260507054240 83 80 0.0 0.0 0.00 0.00 0.00 86 1004.8
20260507054133 83 80 0.0 0.0 0.00 0.00 0.00 86 1004.8
20260507054032 83 80 0.0 0.0 0.00 0.00 0.00 86 1004.8
20260507053942 83 120 0.0 0.0 0.00 0.00 0.00 86 1004.8
20260507053845 83 120 0.0 0.0 0.00 0.00 0.00 86 1004.8
20260507053722 83 96 0.0 0.0 0.00 0.00 0.00 87 1004.8
20260507053626 83 96 0.0 0.0 0.00 0.00 0.00 87 1004.8
20260507053545 83 82 0.0 0.0 0.00 0.00 0.00 87 1004.8
20260507053424 83 125 0.0 0.0 0.00 0.00 0.00 87 1004.8
20260507053340 83 134 0.0 0.0 0.00 0.00 0.00 87 1004.8
20260507053301 83 134 0.0 0.0 0.00 0.00 0.00 87 1004.8
20260507053143 83 134 0.0 0.0 0.00 0.00 0.00 87 1004.8
20260507053040 83 57 0.0 0.0 0.00 0.00 0.00 86 1004.6
20260507053005 83 57 0.0 0.0 0.00 0.00 0.00 86 1004.6
20260507052820 83 56 0.0 0.0 0.00 0.00 0.00 86 1004.6
20260507052734 83 312 0.0 0.0 0.00 0.00 0.00 86 1004.6
20260507052634 83 297 0.0 0.0 0.00 0.00 0.00 86 1004.6
20260507052528 83 290 0.0 0.0 0.00 0.00 0.00 86 1004.6
20260507052421 83 290 0.0 0.0 0.00 0.00 0.00 86 1004.6
20260507052325 83 111 0.0 0.0 0.00 0.00 0.00 86 1004.6
20260507052240 83 111 0.0 0.0 0.00 0.00 0.00 86 1004.6
20260507052120 83 111 0.0 0.0 0.00 0.00 0.00 86 1004.6
20260507052034 83 111 0.0 0.0 0.00 0.00 0.00 86 1004.6
20260507051956 83 111 0.0 0.0 0.00 0.00 0.00 86 1004.6
20260507051831 83 111 0.0 0.0 0.00 0.00 0.00 86 1004.6
20260507051754 83 111 0.0 0.0 0.00 0.00 0.00 86 1004.6
20260507051626 83 111 0.0 0.0 0.00 0.00 0.00 86 1004.5
20260507051527 83 111 0.0 0.0 0.00 0.00 0.00 86 1004.5
20260507051423 83 111 0.0 0.0 0.00 0.00 0.00 86 1004.5
20260507051347 83 111 0.0 0.0 0.00 0.00 0.00 86 1004.5
20260507051220 83 111 0.0 0.0 0.00 0.00 0.00 86 1004.5
20260507051131 83 111 0.0 0.0 0.00 0.00 0.00 86 1004.5
20260507051035 83 101 0.0 0.0 0.00 0.00 0.00 86 1004.5
20260507050931 83 100 0.0 0.0 0.00 0.00 0.00 86 1004.5
20260507050825 83 100 0.0 0.0 0.00 0.00 0.00 86 1004.5
20260507050735 83 100 0.0 0.0 0.00 0.00 0.00 86 1004.5
20260507050628 83 89 0.0 0.0 0.00 0.00 0.00 86 1004.5
20260507050528 83 89 0.0 0.0 0.00 0.00 0.00 86 1004.5
20260507050449 83 99 0.0 0.0 0.00 0.00 0.00 86 1004.5
20260507050340 83 208 0.0 0.0 0.00 0.00 0.00 86 1004.5
20260507050232 83 91 0.0 0.0 0.00 0.00 0.00 86 1004.5
20260507050132 83 91 0.0 0.0 0.00 0.00 0.00 86 1004.6
20260507050025 83 73 0.0 0.0 0.00 0.00 0.00 86 1004.6
20260507045950 83 73 0.0 0.0 0.00 0.00 0.00 86 1004.6
20260507045822 83 131 0.0 0.0 0.00 0.00 0.00 86 1004.6
20260507045738 83 131 0.0 0.0 0.00 0.00 0.00 86 1004.6
20260507045642 83 153 0.0 0.0 0.00 0.00 0.00 86 1004.6
20260507045534 83 153 0.0 0.0 0.00 0.00 0.00 86 1004.6
20260507045426 83 153 0.0 0.0 0.00 0.00 0.00 86 1004.6
20260507045326 83 89 0.0 0.0 0.00 0.00 0.00 86 1004.6
20260507045221 83 89 0.0 0.0 0.00 0.00 0.00 86 1004.6
20260507045126 83 88 0.0 0.0 0.00 0.00 0.00 86 1004.6
20260507045020 83 88 0.0 0.0 0.00 0.00 0.00 85 1004.6
20260507044947 83 75 0.0 0.0 0.00 0.00 0.00 85 1004.6
20260507044838 83 84 0.0 0.0 0.00 0.00 0.00 85 1004.6
20260507044728 83 84 0.0 0.0 0.00 0.00 0.00 85 1004.6
20260507044630 83 70 0.0 0.0 0.00 0.00 0.00 85 1004.5
20260507044526 83 69 0.0 0.0 0.00 0.00 0.00 85 1004.5
20260507044448 83 70 0.0 0.0 0.00 0.00 0.00 85 1004.5
20260507044342 83 105 0.0 0.0 0.00 0.00 0.00 85 1004.5
20260507044242 83 105 0.0 0.0 0.00 0.00 0.00 85 1004.5
20260507044154 83 186 0.0 0.0 0.00 0.00 0.00 85 1004.5
20260507044037 84 186 0.0 0.0 0.00 0.00 0.00 85 1004.5
20260507043932 84 70 0.0 0.0 0.00 0.00 0.00 85 1004.5
20260507043822 84 196 0.0 0.0 0.00 0.00 0.00 85 1004.5
20260507043744 84 81 0.0 0.0 0.00 0.00 0.00 85 1004.5
20260507043623 84 324 0.0 0.0 0.00 0.00 0.00 85 1004.5
20260507043526 84 324 0.0 0.0 0.00 0.00 0.00 85 1004.5
20260507043421 84 324 0.0 0.0 0.00 0.00 0.00 85 1004.5
20260507043343 84 324 0.0 0.0 0.00 0.00 0.00 85 1004.5
20260507043236 84 271 0.0 0.0 0.00 0.00 0.00 85 1004.5
20260507043130 84 278 0.0 0.0 0.00 0.00 0.00 85 1004.1
20260507043029 84 278 0.0 0.0 0.00 0.00 0.00 84 1004.1
20260507042929 84 292 0.0 0.0 0.00 0.00 0.00 84 1004.1
20260507042831 84 254 0.0 0.0 0.00 0.00 0.00 84 1004.1
20260507042723 84 66 0.0 0.0 0.00 0.00 0.00 84 1004.1
20260507042625 84 215 0.0 0.0 0.00 0.00 0.00 84 1004.1
20260507042540 84 215 0.0 0.0 0.00 0.00 0.00 84 1004.1
20260507042500 84 122 0.0 0.0 0.00 0.00 0.00 84 1004.1
20260507042330 84 232 0.0 0.0 0.00 0.00 0.00 84 1004.1
20260507042231 84 228 0.0 0.0 0.00 0.00 0.00 84 1004.1
20260507042128 84 88 0.0 0.0 0.00 0.00 0.00 84 1004.1
20260507042023 84 242 0.0 0.0 0.00 0.00 0.00 84 1004.1
20260507041948 84 242 0.0 0.0 0.00 0.00 0.00 84 1004.1
20260507041909 84 89 0.0 0.0 0.00 0.00 0.00 84 1004.1
20260507041738 84 90 0.0 0.0 0.00 0.00 0.00 84 1004.1
20260507041622 84 90 0.0 0.0 0.00 0.00 0.00 84 1004.0
20260507041535 84 250 0.0 0.0 0.00 0.00 0.00 84 1004.0
20260507041439 84 132 0.0 0.0 0.00 0.00 0.00 83 1004.0
20260507041334 85 220 0.0 0.0 0.00 0.00 0.00 83 1004.0
20260507041232 85 198 0.0 0.0 0.00 0.00 0.00 83 1004.0
20260507041132 85 114 0.0 0.0 0.00 0.00 0.00 83 1004.0
20260507041024 85 176 1.0 0.0 0.00 0.00 0.00 83 1004.0
20260507040944 85 103 1.0 0.0 0.00 0.00 0.00 83 1004.0
20260507040819 85 102 1.0 0.0 0.00 0.00 0.00 83 1004.0
20260507040738 85 78 1.0 0.0 0.00 0.00 0.00 83 1004.0
20260507040638 85 112 0.0 0.0 0.00 0.00 0.00 83 1004.0
20260507040606 85 103 1.0 0.0 0.00 0.00 0.00 83 1004.0
20260507040416 85 186 1.0 0.0 0.00 0.00 0.00 83 1004.0
20260507040330 85 232 0.0 0.0 0.00 0.00 0.00 83 1004.0
20260507040235 85 49 0.0 0.0 0.00 0.00 0.00 82 1004.0
20260507040124 85 222 0.0 0.0 0.00 0.00 0.00 82 1003.9
20260507040027 85 251 0.0 0.0 0.00 0.00 0.00 82 1003.9
20260507035921 85 80 0.0 0.0 0.00 0.00 0.00 82 1003.9
20260507035848 85 218 0.0 0.0 0.00 0.00 0.00 82 1003.9
20260507035725 85 149 0.0 0.0 0.00 0.00 0.00 82 1003.9
20260507035621 85 142 0.0 0.0 0.00 0.00 0.00 82 1003.9
20260507035543 85 90 0.0 0.0 0.00 0.00 0.00 82 1003.9
20260507035446 85 244 0.0 0.0 0.00 0.00 0.00 82 1003.9
20260507035408 86 99 0.0 0.0 0.00 0.00 0.00 82 1003.9
20260507035236 86 244 0.0 0.0 0.00 0.00 0.00 82 1003.9
20260507035132 86 53 0.0 0.0 0.00 0.00 0.00 81 1003.9
20260507035053 86 109 0.0 0.0 0.00 0.00 0.00 81 1003.9
20260507034927 86 98 0.0 0.0 0.00 0.00 0.00 81 1003.9
20260507034827 86 98 0.0 0.0 0.00 0.00 0.00 81 1003.9
20260507034740 86 141 0.0 0.0 0.00 0.00 0.00 81 1003.9
20260507034641 86 185 0.0 0.0 0.00 0.00 0.00 81 1003.9
20260507034553 86 111 0.0 0.0 0.00 0.00 0.00 81 1003.5
20260507034434 86 153 0.0 0.0 0.00 0.00 0.00 81 1003.5
20260507034327 86 186 0.0 0.0 0.00 0.00 0.00 81 1003.5
20260507034249 86 209 0.0 0.0 0.00 0.00 0.00 81 1003.5
20260507034124 86 157 0.0 0.0 0.00 0.00 0.00 81 1003.5
20260507034038 86 245 0.0 0.0 0.00 0.00 0.00 81 1003.5
20260507033939 86 245 0.0 0.0 0.00 0.00 0.00 80 1003.5
20260507033830 86 207 0.0 0.0 0.00 0.00 0.00 80 1003.5
20260507033722 86 67 0.0 0.0 0.00 0.00 0.00 80 1003.5
20260507033626 86 194 0.0 0.0 0.00 0.00 0.00 80 1003.5
20260507033538 86 218 0.0 0.0 0.00 0.00 0.00 80 1003.5
20260507033445 86 103 0.0 0.0 0.00 0.00 0.00 80 1003.5
20260507033320 86 238 0.0 0.0 0.00 0.00 0.00 80 1003.5
20260507033217 86 238 0.0 0.0 0.00 0.00 0.00 80 1003.5
20260507033144 86 240 0.0 0.0 0.00 0.00 0.00 80 1003.5
20260507033039 86 271 0.0 0.0 0.00 0.00 0.00 80 1003.5
20260507032942 87 220 0.0 0.0 0.00 0.00 0.00 80 1003.5
20260507032833 87 220 0.0 0.0 0.00 0.00 0.00 80 1003.5
20260507032737 87 182 0.0 0.0 0.00 0.00 0.00 80 1003.5
20260507032630 87 223 0.0 0.0 0.00 0.00 0.00 80 1003.5
20260507032525 87 112 0.0 0.0 0.00 0.00 0.00 80 1003.5
20260507032429 87 20 0.0 0.0 0.00 0.00 0.00 80 1003.5
20260507032345 87 88 0.0 0.0 0.00 0.00 0.00 79 1003.5
20260507032306 87 88 0.0 0.0 0.00 0.00 0.00 79 1003.5
20260507032205 87 88 0.0 0.0 0.00 0.00 0.00 79 1003.5
20260507032019 87 92 0.0 0.0 0.00 0.00 0.00 79 1003.5
20260507031934 87 76 0.0 0.0 0.00 0.00 0.00 79 1003.5
20260507031839 87 111 0.0 0.0 0.00 0.00 0.00 79 1003.5
20260507031732 87 111 0.0 0.0 0.00 0.00 0.00 79 1003.5
20260507031653 87 257 0.0 0.0 0.00 0.00 0.00 79 1003.4
20260507031525 87 169 0.0 0.0 0.00 0.00 0.00 79 1003.4
20260507031426 87 119 0.0 0.0 0.00 0.00 0.00 79 1003.4
20260507031344 87 242 0.0 0.0 0.00 0.00 0.00 79 1003.4
20260507031258 87 217 0.0 0.0 0.00 0.00 0.00 79 1003.4
20260507031139 87 96 0.0 0.0 0.00 0.00 0.00 79 1003.4
20260507031038 87 236 0.0 0.0 0.00 0.00 0.00 79 1003.4
20260507030959 87 213 0.0 0.0 0.00 0.00 0.00 79 1003.4
20260507030836 87 194 0.0 0.0 0.00 0.00 0.00 79 1003.4
20260507030757 87 223 0.0 0.0 0.00 0.00 0.00 79 1003.4
20260507030628 87 210 0.0 0.0 0.00 0.00 0.00 79 1003.4
20260507030522 87 184 0.0 0.0 0.00 0.00 0.00 78 1003.4
20260507030422 87 210 0.0 0.0 0.00 0.00 0.00 78 1003.4
20260507030335 87 199 0.0 0.0 0.00 0.00 0.00 78 1003.4
20260507030242 87 232 0.0 0.0 0.00 0.00 0.00 78 1003.4
20260507030138 87 140 0.0 0.0 0.00 0.00 0.00 78 1003.4
20260507030059 87 140 0.0 0.0 0.00 0.00 0.00 78 1002.9
20260507025930 87 140 0.0 0.0 0.00 0.00 0.00 78 1002.9
20260507025851 87 183 0.0 0.0 0.00 0.00 0.00 78 1002.9
20260507025721 87 77 0.0 0.0 0.00 0.00 0.00 78 1002.9
20260507025636 87 110 0.0 0.0 0.00 0.00 0.00 78 1002.9
20260507025538 87 95 0.0 0.0 0.00 0.00 0.00 78 1002.9
20260507025434 87 57 0.0 0.0 0.00 0.00 0.00 78 1002.9
20260507025328 87 97 0.0 0.0 0.00 0.00 0.00 78 1002.9
20260507025232 87 53 0.0 0.0 0.00 0.00 0.00 78 1002.9
20260507025122 87 203 0.0 0.0 0.00 0.00 0.00 77 1002.9
20260507025045 87 203 0.0 0.0 0.00 0.00 0.00 77 1002.9
20260507024935 87 257 0.0 0.0 0.00 0.00 0.00 77 1002.9
20260507024829 87 193 0.0 0.0 0.00 0.00 0.00 77 1002.9
20260507024732 87 285 0.0 0.0 0.00 0.00 0.00 77 1002.9
20260507024627 87 117 0.0 0.0 0.00 0.00 0.00 77 1002.4
20260507024546 87 55 0.0 0.0 0.00 0.00 0.00 77 1002.4
20260507024417 88 221 0.0 0.0 0.00 0.00 0.00 77 1002.4
20260507024335 88 222 0.0 0.0 0.00 0.00 0.00 77 1002.4
20260507024234 88 40 0.0 0.0 0.00 0.00 0.00 77 1002.4
20260507024130 88 100 0.0 0.0 0.00 0.00 0.00 77 1002.4
20260507024029 88 119 0.0 0.0 0.00 0.00 0.00 77 1002.4
20260507023948 88 80 0.0 0.0 0.00 0.00 0.00 77 1002.4
20260507023852 88 130 0.0 0.0 0.00 0.00 0.00 77 1002.4
20260507023726 88 175 0.0 0.0 0.00 0.00 0.00 77 1002.4
20260507023647 88 175 0.0 0.0 0.00 0.00 0.00 77 1002.4
20260507023518 88 175 0.0 0.0 0.00 0.00 0.00 77 1002.4
20260507023434 88 175 0.0 0.0 0.00 0.00 0.00 77 1002.4
20260507023335 88 92 0.0 0.0 0.00 0.00 0.00 77 1002.4
20260507023230 88 94 0.0 0.0 0.00 0.00 0.00 76 1002.4
20260507023120 88 51 0.0 0.0 0.00 0.00 0.00 76 1001.9
20260507023027 88 66 0.0 0.0 0.00 0.00 0.00 76 1001.9
20260507022938 88 259 0.0 0.0 0.00 0.00 0.00 76 1001.9
20260507022841 88 78 0.0 0.0 0.00 0.00 0.00 76 1001.9
20260507022733 88 92 1.0 0.0 0.00 0.00 0.00 76 1001.9
20260507022625 88 202 1.0 0.0 0.00 0.00 0.00 76 1001.9
20260507022529 88 180 1.0 0.0 0.00 0.00 0.00 76 1001.9
20260507022424 88 49 1.0 0.0 0.00 0.00 0.00 76 1001.9
20260507022323 88 92 1.0 0.0 0.00 0.00 0.00 76 1001.9
20260507022237 88 93 1.0 0.0 0.00 0.00 0.00 76 1001.9
20260507022141 88 149 0.0 0.0 0.00 0.00 0.00 76 1001.9
20260507022031 88 86 0.0 0.0 0.00 0.00 0.00 76 1001.9
20260507021927 88 276 0.0 0.0 0.00 0.00 0.00 77 1001.9
20260507021833 88 96 0.0 0.0 0.00 0.00 0.00 77 1001.9
20260507021755 88 109 0.0 0.0 0.00 0.00 0.00 77 1001.9
20260507021630 88 140 0.0 0.0 0.00 0.00 0.00 78 1001.5
20260507021551 88 75 0.0 0.0 0.00 0.00 0.00 78 1001.5
20260507021421 88 189 0.0 0.0 0.00 0.00 0.00 79 1001.5
20260507021334 88 104 0.0 0.0 0.00 0.00 0.00 79 1001.5
20260507021238 88 123 0.0 0.0 0.00 0.00 0.00 79 1001.5
20260507021134 88 122 0.0 0.0 0.00 0.00 0.00 79 1001.5
20260507021030 88 101 0.0 0.0 0.00 0.00 0.00 79 1001.5
20260507020931 89 102 0.0 0.0 0.00 0.00 0.00 79 1001.5
20260507020823 89 73 0.0 0.0 0.00 0.00 0.00 79 1001.5
20260507020747 89 73 0.0 0.0 0.00 0.00 0.00 79 1001.5
20260507020638 89 355 0.0 0.0 0.00 0.00 0.00 79 1001.5
20260507020541 89 67 0.0 0.0 0.00 0.00 0.00 79 1001.5
20260507020434 89 71 0.0 0.0 0.00 0.00 0.00 79 1001.5
20260507020340 89 41 0.0 0.0 0.00 0.00 0.00 79 1001.5
20260507020240 89 22 0.0 0.0 0.00 0.00 0.00 79 1001.5
20260507020201 89 52 0.0 0.0 0.00 0.00 0.00 79 1001.5
20260507020031 89 37 0.0 0.0 0.00 0.00 0.00 79 1001.3
20260507015931 89 26 0.0 0.0 0.00 0.00 0.00 79 1001.3
20260507015821 89 28 0.0 0.0 0.00 0.00 0.00 79 1001.3
20260507015744 89 26 0.0 0.0 0.00 0.00 0.00 79 1001.3
20260507015621 89 17 1.0 0.0 0.00 0.00 0.00 78 1001.3
20260507015532 89 58 1.0 0.0 0.00 0.00 0.00 78 1001.3
20260507015436 89 43 1.0 0.0 0.00 0.00 0.00 78 1001.3
20260507015328 89 39 1.0 0.0 0.00 0.00 0.00 78 1001.3
20260507015248 89 38 1.0 0.0 0.00 0.00 0.00 78 1001.3
20260507015139 89 99 2.0 0.0 0.00 0.00 0.00 78 1001.3
20260507015034 89 40 2.0 0.0 0.00 0.00 0.00 78 1001.3
20260507014933 89 30 2.0 0.0 0.00 0.00 0.00 78 1001.3
20260507014825 89 43 2.0 0.0 0.00 0.00 0.00 78 1001.3
20260507014731 89 69 1.0 0.0 0.00 0.00 0.00 78 1001.3
20260507014621 89 39 1.0 0.0 0.00 0.00 0.00 78 1000.9
20260507014542 89 52 0.0 0.0 0.00 0.00 0.00 78 1000.9
20260507014445 89 59 0.0 0.0 0.00 0.00 0.00 78 1000.9
20260507014400 89 20 0.0 0.0 0.00 0.00 0.00 78 1000.9
20260507014258 89 334 0.0 0.0 0.00 0.00 0.00 78 1000.9
20260507014129 89 49 0.0 0.0 0.00 0.00 0.00 78 1000.9
20260507014030 89 42 0.0 0.0 0.00 0.00 0.00 77 1000.9
20260507013923 90 41 0.0 0.0 0.00 0.00 0.00 77 1000.9
20260507013822 90 174 0.0 0.0 0.00 0.00 0.00 77 1000.9
20260507013723 90 22 0.0 0.0 0.00 0.00 0.00 77 1000.9
20260507013637 90 95 0.0 0.0 0.00 0.00 0.00 77 1000.9
20260507013537 90 15 0.0 0.0 0.00 0.00 0.00 77 1000.9
20260507013430 90 44 0.0 0.0 0.00 0.00 0.00 77 1000.9
20260507013331 90 39 0.0 0.0 0.00 0.00 0.00 77 1000.9
20260507013223 90 32 0.0 0.0 0.00 0.00 0.00 77 1000.9
20260507013145 90 44 0.0 0.0 0.00 0.00 0.00 77 1000.9
20260507013022 90 48 0.0 0.0 0.00 0.00 0.00 77 1000.7
20260507012934 90 29 0.0 0.0 0.00 0.00 0.00 77 1000.7
20260507012858 90 32 0.0 0.0 0.00 0.00 0.00 77 1000.7
20260507012739 90 32 0.0 0.0 0.00 0.00 0.00 77 1000.7
20260507012655 90 47 0.0 0.0 0.00 0.00 0.00 77 1000.7
20260507012533 90 55 1.0 0.0 0.00 0.00 0.00 76 1000.7
20260507012432 90 55 1.0 0.0 0.00 0.00 0.00 76 1000.7
20260507012338 90 55 1.0 0.0 0.00 0.00 0.00 76 1000.7
20260507012222 90 55 1.0 0.0 0.00 0.00 0.00 76 1000.7
20260507012134 90 36 1.0 0.0 0.00 0.00 0.00 76 1000.7
20260507012056 90 33 1.0 0.0 0.00 0.00 0.00 76 1000.7
20260507011927 90 40 1.0 0.0 0.00 0.00 0.00 76 1000.7
20260507011851 90 23 1.0 0.0 0.00 0.00 0.00 76 1000.7
20260507011751 90 34 1.0 0.0 0.00 0.00 0.00 76 1000.7
20260507011620 91 205 1.0 0.0 0.00 0.00 0.00 76 1000.4
20260507011538 91 336 1.0 0.0 0.00 0.00 0.00 76 1000.4
20260507011423 91 53 1.0 0.0 0.00 0.00 0.00 75 1000.4
20260507011337 91 12 1.0 0.0 0.00 0.00 0.00 75 1000.4
20260507011258 91 45 1.0 0.0 0.00 0.00 0.00 75 1000.4
20260507011129 91 39 1.0 0.0 0.00 0.00 0.00 75 1000.4
20260507011031 91 22 1.0 0.0 0.00 0.00 0.00 75 1000.4
20260507010740 91 51 2.0 0.0 0.00 0.00 0.00 75 1000.4
20260507010645 91 17 2.0 0.0 0.00 0.00 0.00 75 1000.4
20260507010518 91 58 2.0 0.0 0.00 0.00 0.00 75 1000.4
20260507010431 91 46 2.0 0.0 0.00 0.00 0.00 75 1000.4
20260507010331 91 32 2.0 0.0 0.00 0.00 0.00 75 1000.4
20260507010226 92 46 1.0 0.0 0.00 0.00 0.00 74 1000.4
20260507010148 92 32 1.0 0.0 0.00 0.00 0.00 74 1000.4
20260507010040 92 65 1.0 0.0 0.00 0.00 0.00 74 1000.2
20260507005925 92 25 1.0 0.0 0.00 0.00 0.00 74 1000.2
20260507005839 92 310 1.0 0.0 0.00 0.00 0.00 74 1000.2
20260507005744 92 59 1.0 0.0 0.00 0.00 0.00 74 1000.2
20260507005647 92 44 1.0 0.0 0.00 0.00 0.00 74 1000.2
20260507005522 92 46 1.0 0.0 0.00 0.00 0.00 73 1000.2
20260507005434 92 40 1.0 0.0 0.00 0.00 0.00 73 1000.2
20260507005336 92 19 1.0 0.0 0.00 0.00 0.00 73 1000.2
20260507005234 92 167 1.0 0.0 0.00 0.00 0.00 73 1000.2
20260507005126 92 32 2.0 0.0 0.00 0.00 0.00 73 1000.2
20260507005055 92 49 2.0 0.0 0.00 0.00 0.00 72 1000.2
20260507004936 93 44 2.0 0.0 0.00 0.00 0.00 72 1000.2
20260507004828 93 338 2.0 0.0 0.00 0.00 0.00 72 1000.2
20260507004747 93 63 2.0 0.0 0.00 0.00 0.00 72 1000.2
20260507004638 93 46 2.0 0.0 0.00 0.00 0.00 72 1000.2
20260507004542 93 175 2.0 0.0 0.00 0.00 0.00 72 999.8
20260507004438 93 197 2.0 0.0 0.00 0.00 0.00 71 999.8
20260507004359 93 351 2.0 0.0 0.00 0.00 0.00 71 999.8
20260507004215 94 74 2.0 0.0 0.00 0.00 0.00 71 999.8
20260507004131 94 80 2.0 0.0 0.00 0.00 0.00 70 999.8
20260507004033 94 100 2.0 0.0 0.00 0.00 0.00 70 999.8
20260507003923 94 315 2.0 0.0 0.00 0.00 0.00 70 999.8
20260507003845 94 232 2.0 0.0 0.00 0.00 0.00 70 999.8
20260507003738 94 341 2.0 0.0 0.00 0.00 0.00 69 999.8
20260507003637 95 36 1.0 0.0 0.00 0.00 0.00 68 999.8
20260507003532 95 14 1.0 0.0 0.00 0.00 0.00 67 999.8
20260507003457 95 325 1.0 0.0 0.00 0.00 0.00 64 999.8
20260507003329 95 44 0.0 0.0 0.00 0.00 0.00 64 999.8
20260507003250 95 46 0.0 0.0 0.00 0.00 0.00 64 999.8
20260507003122 95 84 0.0 0.0 0.00 0.00 0.00 64 999.7
20260507003033 95 28 0.0 0.0 0.00 0.00 0.00 64 999.7
20260507002956 95 32 0.0 0.0 0.00 0.00 0.00 64 999.7
20260507002830 95 18 0.0 0.0 0.00 0.00 0.00 64 999.7
20260507002731 95 38 0.0 0.0 0.00 0.00 0.00 64 999.7
20260507002627 95 31 0.0 0.0 0.00 0.00 0.00 64 999.7
20260507002523 95 29 0.0 0.0 0.00 0.00 0.00 64 999.7
20260507002423 95 67 0.0 0.0 0.00 0.00 0.00 63 999.7
20260507002342 95 74 0.0 0.0 0.00 0.00 0.00 63 999.7
20260507002242 95 101 0.0 0.0 0.00 0.00 0.00 63 999.7
20260507002143 95 22 0.0 0.0 0.00 0.00 0.00 63 999.7
20260507002033 95 32 0.0 0.0 0.00 0.00 0.00 63 999.7
20260507001955 95 22 0.0 0.0 0.00 0.00 0.00 63 999.7
20260507001850 95 17 0.0 0.0 0.00 0.00 0.00 63 999.7
20260507001730 95 44 0.0 0.0 0.00 0.00 0.00 63 999.7
20260507001622 95 50 0.0 0.0 0.00 0.00 0.00 63 999.5
20260507001521 95 36 0.0 0.0 0.00 0.00 0.00 63 999.5
20260507001424 95 40 0.0 0.0 0.00 0.00 0.00 63 999.5
20260507001343 95 42 0.0 0.0 0.00 0.00 0.00 63 999.5
20260507001246 95 37 0.0 0.0 0.00 0.00 0.00 63 999.5
20260507001207 95 76 0.0 0.0 0.00 0.00 0.00 63 999.5
20260507001023 95 69 0.0 0.0 0.00 0.00 0.00 63 999.5
20260507000939 95 46 0.0 0.0 0.00 0.00 0.00 63 999.5
20260507000840 95 26 0.0 0.0 0.00 0.00 0.00 63 999.5
20260507000733 95 28 0.0 0.0 0.00 0.00 0.00 63 999.5
20260507000625 95 24 0.0 0.0 0.00 0.00 0.00 63 999.5
20260507000527 95 24 0.0 0.0 0.00 0.00 0.00 63 999.5
20260507000438 95 28 0.0 0.0 0.00 0.00 0.00 63 999.5
20260507000345 95 72 0.0 0.0 0.00 0.00 0.00 63 999.5
20260507000236 95 44 0.0 0.0 0.00 0.00 0.00 63 999.5
20260507000138 95 36 0.0 0.0 0.00 0.00 0.00 63 999.5
20260507000052 95 31 0.0 0.0 0.00 0.00 0.00 63 999.3
20260506235937 95 25 0.0 0.0 0.00 0.00 0.00 63 999.3
20260506235857 95 35 0.0 0.0 0.00 0.00 0.00 63 999.3
20260506235735 95 18 0.0 0.0 0.00 0.00 0.00 63 999.3
20260506235630 95 29 0.0 0.0 0.00 0.00 0.00 63 999.3
20260506235531 95 46 0.0 0.0 0.00 0.00 0.00 62 999.3
20260506235430 95 43 0.0 0.0 0.00 0.00 0.00 63 999.3
20260506235350 95 30 0.0 0.0 0.00 0.00 0.00 63 999.3
20260506235223 96 30 0.0 0.0 0.00 0.00 0.00 63 999.3
20260506235144 95 37 0.0 0.0 0.00 0.00 0.00 63 999.3
20260506235016 95 22 0.0 0.0 0.00 0.00 0.00 63 999.3
20260506234943 95 33 0.0 0.0 0.00 0.00 0.00 63 999.3
20260506234839 95 33 0.0 0.0 0.00 0.00 0.00 63 999.3
20260506234719 95 39 0.0 0.0 0.00 0.00 0.00 63 999.3
20260506234644 95 36 0.0 0.0 0.00 0.00 0.00 63 999.3
20260506234609 95 33 0.0 0.0 0.00 0.00 0.00 63 999.3
20260506234420 95 161 1.0 0.0 0.00 0.00 0.00 63 999.3
20260506234331 95 51 1.0 0.0 0.00 0.00 0.00 63 999.3
20260506234253 95 42 1.0 0.0 0.00 0.00 0.00 63 999.3
20260506234125 95 58 1.0 0.0 0.00 0.00 0.00 62 999.3
20260506234026 95 14 1.0 0.0 0.00 0.00 0.00 62 999.3
20260506233923 96 45 1.0 0.0 0.00 0.00 0.00 62 999.3
20260506233845 96 94 1.0 0.0 0.00 0.00 0.00 63 999.3
20260506233756 95 25 1.0 0.0 0.00 0.00 0.00 63 999.3
20260506233634 95 72 1.0 0.0 0.00 0.00 0.00 63 999.3
20260506233533 95 32 1.0 0.0 0.00 0.00 0.00 63 999.3
20260506233435 95 19 1.0 0.0 0.00 0.00 0.00 62 999.3
20260506233329 95 28 1.0 0.0 0.00 0.00 0.00 62 999.3
20260506233251 96 24 1.0 0.0 0.00 0.00 0.00 62 999.3
20260506233126 95 67 1.0 0.0 0.00 0.00 0.00 62 999.2
20260506233050 96 46 1.0 0.0 0.00 0.00 0.00 63 999.2
20260506232923 95 59 1.0 0.0 0.00 0.00 0.00 63 999.2
20260506232826 95 48 1.0 0.0 0.00 0.00 0.00 63 999.2
20260506232738 95 41 1.0 0.0 0.00 0.00 0.00 63 999.2
20260506232642 95 46 1.0 0.0 0.00 0.00 0.00 63 999.2
20260506232541 95 24 1.0 0.0 0.00 0.00 0.00 63 999.2
20260506232439 96 49 0.0 0.0 0.00 0.00 0.00 63 999.2
20260506232335 96 39 0.0 0.0 0.00 0.00 0.00 63 999.2
20260506232230 96 22 0.0 0.0 0.00 0.00 0.00 63 999.2
20260506232132 96 53 0.0 0.0 0.00 0.00 0.00 63 999.2
20260506232046 96 35 0.0 0.0 0.00 0.00 0.00 63 999.2
20260506231926 96 38 0.0 0.0 0.00 0.00 0.00 63 999.2
20260506231849 96 30 0.0 0.0 0.00 0.00 0.00 63 999.2
20260506231740 96 20 1.0 0.0 0.00 0.00 0.00 63 999.2
20260506231629 96 40 1.0 0.0 0.00 0.00 0.00 63 999.1
20260506231553 96 43 1.0 0.0 0.00 0.00 0.00 63 999.1
20260506231429 96 24 1.0 0.0 0.00 0.00 0.00 63 999.1
20260506231350 96 34 1.0 0.0 0.00 0.00 0.00 63 999.1
20260506231254 96 40 1.0 0.0 0.00 0.00 0.00 63 999.1
20260506231130 96 15 1.0 0.0 0.00 0.00 0.00 63 999.1
20260506231022 96 49 1.0 0.0 0.00 0.00 0.00 63 999.1
20260506230921 96 23 1.0 0.0 0.00 0.00 0.00 62 999.1
20260506230821 96 10 1.0 0.0 0.00 0.00 0.00 62 999.1
20260506230745 96 16 1.0 0.0 0.00 0.00 0.00 63 999.1
20260506230620 96 28 0.0 0.0 0.00 0.00 0.00 62 999.1
20260506230538 96 27 0.0 0.0 0.00 0.00 0.00 62 999.1
20260506230500 96 82 0.0 0.0 0.00 0.00 0.00 63 999.1
20260506230401 96 42 0.0 0.0 0.00 0.00 0.00 64 999.1
20260506230252 96 26 0.0 0.0 0.00 0.00 0.00 63 999.1
20260506230151 96 97 0.0 0.0 0.00 0.00 0.00 63 998.9
20260506230053 96 18 0.0 0.0 0.00 0.00 0.00 64 998.9
20260506225922 96 44 0.0 0.0 0.00 0.00 0.00 64 998.9
20260506225850 96 39 0.0 0.0 0.00 0.00 0.00 64 998.9
20260506225802 96 39 0.0 0.0 0.00 0.00 0.00 62 998.9
20260506225645 96 41 0.0 0.0 0.00 0.00 0.00 63 998.9
20260506225537 96 60 0.0 0.0 0.00 0.00 0.00 62 998.9
20260506225443 96 55 0.0 0.0 0.00 0.00 0.00 63 998.9
20260506225336 96 30 0.0 0.0 0.00 0.00 0.00 63 998.9
20260506225242 96 64 0.0 0.0 0.00 0.00 0.00 63 998.9
20260506225137 96 30 0.0 0.0 0.00 0.00 0.00 63 998.9
20260506225031 96 25 0.0 0.0 0.00 0.00 0.00 63 998.9
20260506224956 96 37 0.0 0.0 0.00 0.00 0.00 63 998.9
20260506224840 96 35 1.0 0.0 0.00 0.00 0.00 63 998.9
20260506224730 96 350 1.0 0.0 0.00 0.00 0.00 63 998.9
20260506224621 96 34 1.0 0.0 0.00 0.00 0.00 62 999.0
20260506224525 96 75 1.0 0.0 0.00 0.00 0.00 62 999.0
20260506224440 97 77 1.0 0.0 0.00 0.00 0.00 62 999.0
20260506224406 97 33 1.0 0.0 0.00 0.00 0.00 62 999.0
20260506224218 97 342 1.0 0.0 0.00 0.00 0.00 63 999.0
20260506224115 97 30 1.0 0.0 0.00 0.00 0.00 63 999.0
20260506224042 97 30 1.0 0.0 0.00 0.00 0.00 62 999.0
20260506223937 97 48 1.0 0.0 0.00 0.00 0.00 62 999.0
20260506223842 97 51 0.0 0.0 0.00 0.00 0.00 62 999.0
20260506223735 97 63 0.0 0.0 0.00 0.00 0.00 62 999.0
20260506223630 97 22 0.0 0.0 0.00 0.00 0.00 62 999.0
20260506223550 97 40 0.0 0.0 0.00 0.00 0.00 61 999.0
20260506223427 97 34 0.0 0.0 0.00 0.00 0.00 61 999.0
20260506223351 97 78 0.0 0.0 0.00 0.00 0.00 61 999.0
20260506223222 97 98 0.0 0.0 0.00 0.00 0.00 62 999.0
20260506223124 97 113 0.0 0.0 0.00 0.00 0.00 63 999.1
20260506223042 97 115 0.0 0.0 0.00 0.00 0.00 63 999.1
20260506223004 97 119 0.0 0.0 0.00 0.00 0.00 63 999.1
20260506222903 96 100 0.0 0.0 0.00 0.00 0.00 63 999.1
20260506222734 96 29 0.0 0.0 0.00 0.00 0.00 62 999.1
20260506222630 96 34 0.0 0.0 0.00 0.00 0.00 63 999.1
20260506222535 96 123 0.0 0.0 0.00 0.00 0.00 62 999.1
20260506222426 96 340 0.0 0.0 0.00 0.00 0.00 62 999.1
20260506222320 96 26 0.0 0.0 0.00 0.00 0.00 62 999.1
20260506222224 96 66 0.0 0.0 0.00 0.00 0.00 63 999.1
20260506222136 96 16 0.0 0.0 0.00 0.00 0.00 62 999.1
20260506222037 96 43 0.0 0.0 0.00 0.00 0.00 62 999.1
20260506221930 96 20 0.0 0.0 0.00 0.00 0.00 62 999.1
20260506221826 96 63 0.0 0.0 0.00 0.00 0.00 63 999.1
20260506221723 96 46 1.0 0.0 0.00 0.00 0.00 62 999.1
20260506221639 96 28 1.0 0.0 0.00 0.00 0.00 62 999.1
20260506221539 96 48 1.0 0.0 0.00 0.00 0.00 62 999.2
20260506221431 96 33 2.0 0.0 0.00 0.00 0.00 63 999.2
20260506221352 96 19 2.0 0.0 0.00 0.00 0.00 62 999.2
20260506221221 96 57 2.0 0.0 0.00 0.00 0.00 63 999.2
20260506221147 96 74 3.0 0.0 0.00 0.00 0.00 62 999.2
20260506221020 96 110 3.0 0.0 0.00 0.00 0.00 63 999.2
20260506220928 96 69 3.0 0.0 0.00 0.00 0.00 63 999.2
20260506220850 96 95 3.0 0.0 0.00 0.00 0.00 62 999.2
20260506220741 96 21 3.0 0.0 0.00 0.00 0.00 61 999.2
20260506220636 97 53 2.0 0.0 0.00 0.00 0.00 62 999.2
20260506220527 97 39 1.0 0.0 0.00 0.00 0.00 61 999.2
20260506220449 97 47 1.0 0.0 0.00 0.00 0.00 61 999.2
20260506220331 97 24 1.0 0.0 0.00 0.00 0.00 61 999.2
20260506220219 97 34 1.0 0.0 0.00 0.00 0.00 61 999.2
20260506220147 97 47 0.0 0.0 0.00 0.00 0.00 62 999.2
20260506220022 97 31 0.0 0.0 0.00 0.00 0.00 63 999.2
20260506215947 97 67 0.0 0.0 0.00 0.00 0.00 63 999.2
20260506215908 97 38 0.0 0.0 0.00 0.00 0.00 62 999.2
20260506215738 97 15 0.0 0.0 0.00 0.00 0.00 62 999.2
20260506215657 97 77 0.0 0.0 0.00 0.00 0.00 62 999.2
20260506215529 97 88 0.0 0.0 0.00 0.00 0.00 62 999.2
20260506215424 97 55 0.0 0.0 0.00 0.00 0.00 62 999.2
20260506215330 97 35 0.0 0.0 0.00 0.00 0.00 62 999.2
20260506215222 97 30 0.0 0.0 0.00 0.00 0.00 63 999.2
20260506215144 97 31 0.0 0.0 0.00 0.00 0.00 63 999.2
20260506215034 97 40 0.0 0.0 0.00 0.00 0.00 63 999.2
20260506214932 97 119 0.0 0.0 0.00 0.00 0.00 63 999.2
20260506214848 97 53 0.0 0.0 0.00 0.00 0.00 63 999.2
20260506214726 96 350 1.0 0.0 0.00 0.00 0.00 63 999.2
20260506214638 96 44 1.0 0.0 0.00 0.00 0.00 63 999.2
20260506214542 96 40 1.0 0.0 0.00 0.00 0.00 63 999.2
20260506214420 96 42 2.0 0.0 0.00 0.00 0.00 64 999.2
20260506214334 96 360 2.0 0.0 0.00 0.00 0.00 64 999.2
20260506214219 96 26 2.0 0.0 0.00 0.00 0.00 62 999.2
20260506214134 96 20 2.0 0.0 0.00 0.00 0.00 63 999.2
20260506214038 96 94 2.0 0.0 0.00 0.00 0.00 63 999.2
20260506214000 96 38 2.0 0.0 0.00 0.00 0.00 63 999.2
20260506213847 96 35 2.0 0.0 0.00 0.00 0.00 63 999.2
20260506213808 97 69 2.0 0.0 0.00 0.00 0.00 62 999.2
20260506213200 97 31 0.0 0.0 0.00 0.00 0.00 63 999.2
20260506213035 97 39 0.0 0.0 0.00 0.00 0.00 62 999.3
20260506212927 97 16 0.0 0.0 0.00 0.00 0.00 62 999.3
20260506212852 97 89 0.0 0.0 0.00 0.00 0.00 62 999.3
20260506212730 97 25 0.0 0.0 0.00 0.00 0.00 63 999.3
20260506212630 97 17 0.0 0.0 0.00 0.00 0.00 62 999.3
20260506212524 97 15 0.0 0.0 0.00 0.00 0.00 62 999.3
20260506212445 97 15 0.0 0.0 0.00 0.00 0.00 62 999.3
20260506212357 97 355 0.0 0.0 0.00 0.00 0.00 63 999.3
20260506212235 97 355 0.0 0.0 0.00 0.00 0.00 62 999.3
20260506212131 97 46 0.0 0.0 0.00 0.00 0.00 62 999.3
20260506212029 97 170 0.0 0.0 0.00 0.00 0.00 62 999.3
20260506211936 97 284 0.0 0.0 0.00 0.00 0.00 62 999.3
20260506211828 97 41 0.0 0.0 0.00 0.00 0.00 63 999.3
20260506211727 97 28 0.0 0.0 0.00 0.00 0.00 64 999.3
20260506211624 97 70 0.0 0.0 0.00 0.00 0.00 64 999.4
20260506211548 97 64 0.0 0.0 0.00 0.00 0.00 63 999.4
20260506211442 97 57 0.0 0.0 0.00 0.00 0.00 62 999.4
20260506211333 97 50 0.0 0.0 0.00 0.00 0.00 62 999.4
20260506211227 97 34 0.0 0.0 0.00 0.00 0.00 62 999.4
20260506211148 97 41 0.0 0.0 0.00 0.00 0.00 63 999.4
20260506211023 97 94 0.0 0.0 0.00 0.00 0.00 63 999.4
20260506210934 97 50 0.0 0.0 0.00 0.00 0.00 63 999.4
20260506210855 97 18 0.0 0.0 0.00 0.00 0.00 63 999.4
20260506210727 97 32 0.0 0.0 0.00 0.00 0.00 63 999.4
20260506210628 97 34 0.0 0.0 0.00 0.00 0.00 63 999.4
20260506210524 97 52 0.0 0.0 0.00 0.00 0.00 63 999.4
20260506210446 97 51 0.0 0.0 0.00 0.00 0.00 63 999.4
20260506210320 97 73 0.0 0.0 0.00 0.00 0.00 62 999.4
20260506210232 97 41 0.0 0.0 0.00 0.00 0.00 62 999.4
20260506210133 97 41 0.0 0.0 0.00 0.00 0.00 62 999.4
20260506210027 97 24 0.0 0.0 0.00 0.00 0.00 62 999.7
20260506205948 97 88 0.0 0.0 0.00 0.00 0.00 62 999.7
20260506205823 97 93 0.0 0.0 0.00 0.00 0.00 61 999.7
20260506205736 97 35 0.0 0.0 0.00 0.00 0.00 61 999.7
20260506205637 98 37 0.0 0.0 0.00 0.00 0.00 61 999.7
20260506205530 98 9 0.0 0.0 0.00 0.00 0.00 62 999.7
20260506205425 97 24 0.0 0.0 0.00 0.00 0.00 62 999.7
20260506205344 98 75 0.0 0.0 0.00 0.00 0.00 60 999.7
20260506205247 98 75 0.0 0.0 0.00 0.00 0.00 60 999.7
20260506205144 98 75 0.0 0.0 0.00 0.00 0.00 61 999.7
20260506205107 98 75 0.0 0.0 0.00 0.00 0.00 60 999.7
20260506204937 98 67 0.0 0.0 0.00 0.00 0.00 60 999.7
20260506204842 98 41 0.0 0.0 0.00 0.00 0.00 62 999.7
20260506204732 98 41 0.0 0.0 0.00 0.00 0.00 61 999.7
20260506204630 98 32 0.0 0.0 0.00 0.00 0.00 62 999.8
20260506204554 98 287 0.0 0.0 0.00 0.00 0.00 61 999.8
20260506204425 98 287 0.0 0.0 0.00 0.00 0.00 62 999.8
20260506204327 98 287 0.0 0.0 0.00 0.00 0.00 61 999.8
20260506204227 98 287 0.0 0.0 0.00 0.00 0.00 61 999.8
20260506204148 98 287 0.0 0.0 0.00 0.00 0.00 62 999.8
20260506204024 98 287 0.0 0.0 0.00 0.00 0.00 62 999.8
20260506203944 98 287 0.0 0.0 0.00 0.00 0.00 61 999.8
20260506203837 98 288 0.0 0.0 0.00 0.00 0.00 61 999.8
20260506203730 98 306 0.0 0.0 0.00 0.00 0.00 61 999.8
20260506203632 98 306 0.0 0.0 0.00 0.00 0.00 62 999.8
20260506203528 97 306 0.0 0.0 0.00 0.00 0.00 62 999.8
20260506203434 97 306 0.0 0.0 0.00 0.00 0.00 63 999.8
20260506203326 97 292 0.0 0.0 0.00 0.00 0.00 63 999.8
20260506203247 97 292 0.0 0.0 0.00 0.00 0.00 63 999.8
20260506203117 97 292 0.0 0.0 0.00 0.00 0.00 63 999.9
20260506203044 97 289 0.0 0.0 0.00 0.00 0.00 63 999.9
20260506202942 97 282 0.0 0.0 0.00 0.00 0.00 63 999.9
20260506202834 97 288 0.0 0.0 0.00 0.00 0.00 62 999.9
20260506202737 97 287 0.0 0.0 0.00 0.00 0.00 62 999.9
20260506202630 97 293 0.0 0.0 0.00 0.00 0.00 62 999.9
20260506202531 97 293 0.0 0.0 0.00 0.00 0.00 62 999.9
20260506202423 97 293 0.0 0.0 0.00 0.00 0.00 62 999.9
20260506202346 97 293 0.0 0.0 0.00 0.00 0.00 62 999.9
20260506202220 97 290 0.0 0.0 0.00 0.00 0.00 62 999.9
20260506202144 97 290 0.0 0.0 0.00 0.00 0.00 62 999.9
20260506202040 97 297 0.0 0.0 0.00 0.00 0.00 63 999.9
20260506201946 97 297 0.0 0.0 0.00 0.00 0.00 63 999.9
20260506201818 97 297 0.0 0.0 0.00 0.00 0.00 62 999.9
20260506201735 97 294 0.0 0.0 0.00 0.00 0.00 61 999.9
20260506201641 97 294 0.0 0.0 0.00 0.00 0.00 62 999.9
20260506201552 97 292 0.0 0.0 0.00 0.00 0.00 61 1000.2
20260506201432 97 296 0.0 0.0 0.00 0.00 0.00 62 1000.2
20260506201324 97 304 0.0 0.0 0.00 0.00 0.00 62 1000.2
20260506201220 97 289 0.0 0.0 0.00 0.00 0.00 62 1000.2
20260506201123 97 289 0.0 0.0 0.00 0.00 0.00 62 1000.2
20260506201039 97 289 0.0 0.0 0.00 0.00 0.00 62 1000.2
20260506200940 97 289 0.0 0.0 0.00 0.00 0.00 63 1000.2
20260506200852 97 289 0.0 0.0 0.00 0.00 0.00 63 1000.2
20260506200733 97 296 0.0 0.0 0.00 0.00 0.00 62 1000.2
20260506200648 97 290 0.0 0.0 0.00 0.00 0.00 62 1000.2
20260506200528 97 290 0.0 0.0 0.00 0.00 0.00 62 1000.2
20260506200425 97 294 0.0 0.0 0.00 0.00 0.00 62 1000.2
20260506200346 97 42 0.0 0.0 0.00 0.00 0.00 62 1000.2
20260506200240 97 43 0.0 0.0 0.00 0.00 0.00 62 1000.2
20260506200144 97 49 0.0 0.0 0.00 0.00 0.00 61 1000.2
20260506200039 97 32 0.0 0.0 0.00 0.00 0.00 62 1000.3
20260506200001 97 281 0.0 0.0 0.00 0.00 0.00 61 1000.3
20260506195835 98 281 0.0 0.0 0.00 0.00 0.00 62 1000.3
20260506195726 97 281 0.0 0.0 0.00 0.00 0.00 61 1000.3
20260506195638 97 281 0.0 0.0 0.00 0.00 0.00 62 1000.3
20260506195527 98 281 0.0 0.0 0.00 0.00 0.00 62 1000.3
20260506195452 98 283 0.0 0.0 0.00 0.00 0.00 61 1000.3
20260506195355 98 283 0.0 0.0 0.00 0.00 0.00 61 1000.3
20260506195308 98 284 0.0 0.0 0.00 0.00 0.00 61 1000.3
20260506195229 98 284 0.0 0.0 0.00 0.00 0.00 62 1000.3
20260506195110 98 281 0.0 0.0 0.00 0.00 0.00 61 1000.3
20260506194939 97 281 0.0 0.0 0.00 0.00 0.00 62 1000.3
20260506194833 97 281 0.0 0.0 0.00 0.00 0.00 62 1000.3
20260506194800 97 281 0.0 0.0 0.00 0.00 0.00 62 1000.3
20260506194706 97 281 0.0 0.0 0.00 0.00 0.00 62 1000.3
20260506194537 97 294 0.0 0.0 0.00 0.00 0.00 62 1000.5
20260506194431 97 294 0.0 0.0 0.00 0.00 0.00 62 1000.5
20260506194336 97 294 0.0 0.0 0.00 0.00 0.00 62 1000.5
20260506194235 97 294 0.0 0.0 0.00 0.00 0.00 61 1000.5
20260506194140 97 292 0.0 0.0 0.00 0.00 0.00 61 1000.5
20260506194031 98 290 0.0 0.0 0.00 0.00 0.00 61 1000.5
20260506193955 98 286 0.0 0.0 0.00 0.00 0.00 60 1000.5
20260506193832 98 292 0.0 0.0 0.00 0.00 0.00 60 1000.5
20260506193724 98 306 0.0 0.0 0.00 0.00 0.00 61 1000.5
20260506193624 98 306 0.0 0.0 0.00 0.00 0.00 60 1000.5
20260506193539 98 306 0.0 0.0 0.00 0.00 0.00 61 1000.5
20260506193440 98 39 0.0 0.0 0.00 0.00 0.00 61 1000.5
20260506193332 98 279 0.0 0.0 0.00 0.00 0.00 62 1000.5
20260506193252 98 279 0.0 0.0 0.00 0.00 0.00 61 1000.5
20260506193128 98 279 0.0 0.0 0.00 0.00 0.00 61 1000.8
20260506193049 98 279 0.0 0.0 0.00 0.00 0.00 60 1000.8
20260506192920 98 279 0.0 0.0 0.00 0.00 0.00 61 1000.8
20260506192835 98 34 0.0 0.0 0.00 0.00 0.00 61 1000.8
20260506192735 98 34 0.0 0.0 0.00 0.00 0.00 61 1000.8
20260506192629 98 34 0.0 0.0 0.00 0.00 0.00 63 1000.8
20260506192523 97 34 0.0 0.0 0.00 0.00 0.00 62 1000.8
20260506192429 97 34 0.0 0.0 0.00 0.00 0.00 62 1000.8
20260506192325 97 34 0.0 0.0 0.00 0.00 0.00 62 1000.8
20260506192246 97 34 0.0 0.0 0.00 0.00 0.00 62 1000.8
20260506192137 97 34 0.0 0.0 0.00 0.00 0.00 62 1000.8
20260506192043 97 63 0.0 0.0 0.00 0.00 0.00 62 1000.8
20260506191935 97 294 0.0 0.0 0.00 0.00 0.00 63 1000.8
20260506191859 97 294 0.0 0.0 0.00 0.00 0.00 62 1000.8
20260506191740 97 294 0.0 0.0 0.00 0.00 0.00 62 1000.8
20260506191620 97 294 0.0 0.0 0.00 0.00 0.00 61 1000.9
20260506191531 97 296 0.0 0.0 0.00 0.00 0.00 62 1000.9
20260506191433 97 296 0.0 0.0 0.00 0.00 0.00 63 1000.9
20260506191325 97 296 0.0 0.0 0.00 0.00 0.00 64 1000.9
20260506191247 96 296 0.0 0.0 0.00 0.00 0.00 64 1000.9
20260506191138 96 296 0.0 0.0 0.00 0.00 0.00 65 1000.9
20260506191039 96 296 0.0 0.0 0.00 0.00 0.00 65 1000.9
20260506190934 96 290 0.0 0.0 0.00 0.00 0.00 64 1000.9
20260506190832 96 290 0.0 0.0 0.00 0.00 0.00 64 1000.9
20260506190734 96 306 0.0 0.0 0.00 0.00 0.00 64 1000.9
20260506190649 96 284 0.0 0.0 0.00 0.00 0.00 64 1000.9
20260506190529 95 284 0.0 0.0 0.00 0.00 0.00 65 1000.9
20260506190426 95 54 0.0 0.0 0.00 0.00 0.00 64 1000.9
20260506190347 95 54 0.0 0.0 0.00 0.00 0.00 65 1000.9
20260506190222 95 34 0.0 0.0 0.00 0.00 0.00 65 1000.9
20260506190138 96 29 0.0 0.0 0.00 0.00 0.00 64 1000.9
20260506190043 96 30 0.0 0.0 0.00 0.00 0.00 65 1001.0
20260506185938 96 26 0.0 0.0 0.00 0.00 0.00 64 1001.0
20260506185834 96 31 0.0 0.0 0.00 0.00 0.00 66 1001.0
20260506185740 95 31 0.0 0.0 0.00 0.00 0.00 66 1001.0
20260506185632 95 31 0.0 0.0 0.00 0.00 0.00 65 1001.0
20260506185525 96 41 0.0 0.0 0.00 0.00 0.00 65 1001.0
20260506185430 96 41 0.0 0.0 0.00 0.00 0.00 65 1001.0
20260506185347 96 125 0.0 0.0 0.00 0.00 0.00 64 1001.0
20260506185227 96 167 0.0 0.0 0.00 0.00 0.00 63 1001.0
20260506185136 96 48 0.0 0.0 0.00 0.00 0.00 64 1001.0
20260506185040 96 57 0.0 0.0 0.00 0.00 0.00 64 1001.0
20260506184936 97 46 0.0 0.0 0.00 0.00 0.00 65 1001.0
20260506184829 97 32 0.0 0.0 0.00 0.00 0.00 65 1001.0
20260506184732 96 340 0.0 0.0 0.00 0.00 0.00 65 1001.0
20260506184631 96 234 0.0 0.0 0.00 0.00 0.00 65 1001.2
20260506184527 96 234 0.0 0.0 0.00 0.00 0.00 65 1001.2
20260506184428 96 234 0.0 0.0 0.00 0.00 0.00 66 1001.2
20260506184341 96 234 0.0 0.0 0.00 0.00 0.00 65 1001.2
20260506184243 95 214 0.0 0.0 0.00 0.00 0.00 66 1001.2
20260506184136 95 229 0.0 0.0 0.00 0.00 0.00 66 1001.2
20260506184029 95 229 0.0 0.0 0.00 0.00 0.00 65 1001.2
20260506183933 95 221 0.0 0.0 0.00 0.00 0.00 65 1001.2
20260506183855 95 221 0.0 0.0 0.00 0.00 0.00 66 1001.2
20260506183728 95 221 0.0 0.0 0.00 0.00 0.00 65 1001.2
20260506183648 95 220 0.0 0.0 0.00 0.00 0.00 65 1001.2
20260506183543 95 221 0.0 0.0 0.00 0.00 0.00 65 1001.2
20260506183446 95 221 0.0 0.0 0.00 0.00 0.00 65 1001.2
20260506183402 95 221 0.0 0.0 0.00 0.00 0.00 65 1001.2
20260506183243 95 221 0.0 0.0 0.00 0.00 0.00 64 1001.2
20260506183156 96 225 0.0 0.0 0.00 0.00 0.00 64 1001.2
20260506183040 96 162 0.0 0.0 0.00 0.00 0.00 65 1001.4
20260506182930 96 200 0.0 0.0 0.00 0.00 0.00 64 1001.4
20260506182834 96 200 0.0 0.0 0.00 0.00 0.00 65 1001.4
20260506182728 96 98 0.0 0.0 0.00 0.00 0.00 65 1001.4
20260506182648 96 128 0.0 0.0 0.00 0.00 0.00 65 1001.4
20260506182521 96 175 0.0 0.0 0.00 0.00 0.00 65 1001.4
20260506182433 96 126 0.0 0.0 0.00 0.00 0.00 65 1001.4
20260506182339 96 148 0.0 0.0 0.00 0.00 0.00 65 1001.4
20260506182252 96 76 0.0 0.0 0.00 0.00 0.00 64 1001.4
20260506182132 96 115 0.0 0.0 0.00 0.00 0.00 64 1001.4
20260506182027 96 215 1.0 0.0 0.00 0.00 0.00 64 1001.4
20260506181919 96 215 1.0 0.0 0.00 0.00 0.00 64 1001.4
20260506181843 96 225 1.0 0.0 0.00 0.00 0.00 64 1001.4
20260506181808 96 186 0.0 0.0 0.00 0.00 0.00 64 1001.4
20260506181656 96 111 0.0 0.0 0.00 0.00 0.00 64 1001.4
20260506181525 96 218 0.0 0.0 0.00 0.00 0.00 64 1001.4
20260506181436 96 218 0.0 0.0 0.00 0.00 0.00 64 1001.4
20260506181400 96 219 0.0 0.0 0.00 0.00 0.00 64 1001.4
20260506181245 96 213 0.0 0.0 0.00 0.00 0.00 65 1001.4
20260506181137 95 207 0.0 0.0 0.00 0.00 0.00 66 1001.4
20260506181031 95 181 0.0 0.0 0.00 0.00 0.00 66 1001.4
20260506180936 95 221 0.0 0.0 0.00 0.00 0.00 66 1001.4
20260506180828 95 221 0.0 0.0 0.00 0.00 0.00 66 1001.4
20260506180728 95 221 0.0 0.0 0.00 0.00 0.00 66 1001.4
20260506180652 95 98 0.0 0.0 0.00 0.00 0.00 65 1001.4
20260506180523 95 28 0.0 0.0 0.00 0.00 0.00 66 1001.4
20260506180423 95 127 0.0 0.0 0.00 0.00 0.00 66 1001.4
20260506180338 95 48 0.0 0.0 0.00 0.00 0.00 64 1001.4
20260506180238 96 53 0.0 0.0 0.00 0.00 0.00 64 1001.4
20260506180137 96 72 0.0 0.0 0.00 0.00 0.00 65 1001.4
20260506180100 96 88 0.0 0.0 0.00 0.00 0.00 64 1001.5
20260506175939 96 180 0.0 0.0 0.00 0.00 0.00 65 1001.5
20260506175829 96 180 1.0 0.0 0.00 0.00 0.00 66 1001.5
20260506175729 96 223 1.0 0.0 0.00 0.00 0.00 65 1001.5
20260506175622 96 216 1.0 0.0 0.00 0.00 0.00 64 1001.5
20260506175547 96 207 1.0 0.0 0.00 0.00 0.00 65 1001.5
20260506175503 96 182 1.0 0.0 0.00 0.00 0.00 65 1001.5
20260506175342 96 164 1.0 0.0 0.00 0.00 0.00 66 1001.5
20260506175233 96 222 1.0 0.0 0.00 0.00 0.00 66 1001.5
20260506175129 95 234 1.0 0.0 0.00 0.00 0.00 66 1001.5
20260506175030 95 179 0.0 0.0 0.00 0.00 0.00 66 1001.5
20260506174921 95 236 0.0 0.0 0.00 0.00 0.00 67 1001.5
20260506174828 95 233 0.0 0.0 0.00 0.00 0.00 66 1001.5
20260506174746 95 233 0.0 0.0 0.00 0.00 0.00 65 1001.5
20260506174708 95 203 0.0 0.0 0.00 0.00 0.00 65 1001.5
20260506174607 95 278 0.0 0.0 0.00 0.00 0.00 66 1001.7
20260506174422 95 152 0.0 0.0 0.00 0.00 0.00 68 1001.7
20260506174338 95 214 0.0 0.0 0.00 0.00 0.00 67 1001.7
20260506174224 95 203 0.0 0.0 0.00 0.00 0.00 67 1001.7
20260506174146 95 216 0.0 0.0 0.00 0.00 0.00 68 1001.7
20260506174056 95 220 0.0 0.0 0.00 0.00 0.00 66 1001.7
20260506173936 95 232 0.0 0.0 0.00 0.00 0.00 66 1001.7
20260506173826 95 111 0.0 0.0 0.00 0.00 0.00 66 1001.7
20260506173747 95 111 0.0 0.0 0.00 0.00 0.00 66 1001.7
20260506173620 95 92 0.0 0.0 0.00 0.00 0.00 68 1001.7
20260506173544 94 224 0.0 0.0 0.00 0.00 0.00 68 1001.7
20260506173439 94 224 0.0 0.0 0.00 0.00 0.00 68 1001.7
20260506173346 94 224 0.0 0.0 0.00 0.00 0.00 66 1001.7
20260506173222 94 219 0.0 0.0 0.00 0.00 0.00 69 1001.7
20260506173134 94 199 0.0 0.0 0.00 0.00 0.00 69 1001.7
20260506173035 94 220 0.0 0.0 0.00 0.00 0.00 68 1001.8
20260506172927 94 257 0.0 0.0 0.00 0.00 0.00 68 1001.8
20260506172819 94 140 0.0 0.0 0.00 0.00 0.00 68 1001.8
20260506172750 93 140 0.0 0.0 0.00 0.00 0.00 68 1001.8
20260506172624 93 196 0.0 0.0 0.00 0.00 0.00 69 1001.8
20260506172525 93 171 0.0 0.0 0.00 0.00 0.00 70 1001.8
20260506172441 93 177 0.0 0.0 0.00 0.00 0.00 69 1001.8
20260506172340 93 176 0.0 0.0 0.00 0.00 0.00 69 1001.8
20260506172236 93 284 0.0 0.0 0.00 0.00 0.00 70 1001.8
20260506172129 93 284 0.0 0.0 0.00 0.00 0.00 68 1001.8
20260506172034 93 288 0.0 0.0 0.00 0.00 0.00 68 1001.8
20260506171926 93 288 0.0 0.0 0.00 0.00 0.00 68 1001.8
20260506171823 93 270 0.0 0.0 0.00 0.00 0.00 69 1001.8
20260506171725 93 226 0.0 0.0 0.00 0.00 0.00 68 1001.8
20260506171620 93 226 0.0 0.0 0.00 0.00 0.00 68 1001.8
20260506171547 93 226 0.0 0.0 0.00 0.00 0.00 68 1001.8
20260506171458 93 225 0.0 0.0 0.00 0.00 0.00 68 1001.8
20260506171338 93 226 0.0 0.0 0.00 0.00 0.00 68 1001.8
20260506171237 93 226 0.0 0.0 0.00 0.00 0.00 67 1001.8
20260506171129 94 226 0.0 0.0 0.00 0.00 0.00 67 1001.8
20260506171028 94 223 0.0 0.0 0.00 0.00 0.00 67 1001.8
20260506170924 94 213 0.0 0.0 0.00 0.00 0.00 67 1001.8
20260506170825 94 218 0.0 0.0 0.00 0.00 0.00 69 1001.8
20260506170736 93 218 0.0 0.0 0.00 0.00 0.00 70 1001.8
20260506170636 93 144 0.0 0.0 0.00 0.00 0.00 69 1001.8
20260506170532 93 144 0.0 0.0 0.00 0.00 0.00 69 1001.8
20260506170436 93 144 0.0 0.0 0.00 0.00 0.00 70 1001.8
20260506170328 93 198 1.0 0.0 0.00 0.00 0.00 68 1001.8
20260506170224 93 198 1.0 0.0 0.00 0.00 0.00 68 1001.8
20260506170128 93 225 1.0 0.0 0.00 0.00 0.00 69 1001.9
20260506170045 93 168 1.0 0.0 0.00 0.00 0.00 69 1001.9
20260506165924 93 210 1.0 0.0 0.00 0.00 0.00 69 1001.9
20260506165847 93 221 1.0 0.0 0.00 0.00 0.00 68 1001.9
20260506165758 93 221 1.0 0.0 0.00 0.00 0.00 68 1001.9
20260506165642 93 179 1.0 0.0 0.00 0.00 0.00 69 1001.9
20260506165535 93 235 1.0 0.0 0.00 0.00 0.00 68 1001.9
20260506165427 93 229 1.0 0.0 0.00 0.00 0.00 68 1001.9
20260506165335 93 231 1.0 0.0 0.00 0.00 0.00 67 1001.9
20260506165226 93 245 1.0 0.0 0.00 0.00 0.00 68 1001.9
20260506165148 93 228 0.0 0.0 0.00 0.00 0.00 68 1001.9
20260506165042 93 212 0.0 0.0 0.00 0.00 0.00 69 1001.9
20260506164947 93 178 1.0 0.0 0.00 0.00 0.00 69 1001.9
20260506164818 93 223 0.0 0.0 0.00 0.00 0.00 69 1001.9
20260506164737 93 221 0.0 0.0 0.00 0.00 0.00 70 1001.9
20260506164700 93 223 0.0 0.0 0.00 0.00 0.00 69 1001.9
20260506164530 93 223 0.0 0.0 0.00 0.00 0.00 69 1001.8
20260506164457 93 209 0.0 0.0 0.00 0.00 0.00 70 1001.8
20260506164336 93 213 0.0 0.0 0.00 0.00 0.00 69 1001.8
20260506164228 93 232 1.0 0.0 0.00 0.00 0.00 69 1001.8
20260506164123 93 211 1.0 0.0 0.00 0.00 0.00 69 1001.8
20260506164031 93 211 1.0 0.0 0.00 0.00 0.00 70 1001.8
20260506163942 93 211 1.0 0.0 0.00 0.00 0.00 70 1001.8
20260506163828 92 168 1.0 0.0 0.00 0.00 0.00 70 1001.8
20260506163740 92 191 1.0 0.0 0.00 0.00 0.00 70 1001.8
20260506163640 92 213 1.0 0.0 0.00 0.00 0.00 71 1001.8
20260506163533 92 219 1.0 0.0 0.00 0.00 0.00 70 1001.8
20260506163434 92 195 1.0 0.0 0.00 0.00 0.00 69 1001.8
20260506163328 92 190 0.0 0.0 0.00 0.00 0.00 70 1001.8
20260506163252 92 209 0.0 0.0 0.00 0.00 0.00 71 1001.8
20260506163123 92 98 0.0 0.0 0.00 0.00 0.00 72 1001.9
20260506163034 91 209 0.0 0.0 0.00 0.00 0.00 72 1001.9
20260506162937 91 200 0.0 0.0 0.00 0.00 0.00 73 1001.9
20260506162828 91 196 1.0 0.0 0.00 0.00 0.00 72 1001.9
20260506162748 91 196 1.0 0.0 0.00 0.00 0.00 72 1001.9
20260506162622 90 166 0.0 0.0 0.00 0.00 0.00 74 1001.9
20260506162547 90 217 0.0 0.0 0.00 0.00 0.00 74 1001.8
20260506162440 90 187 1.0 0.0 0.00 0.00 0.00 73 1001.8
20260506162335 90 186 1.0 0.0 0.00 0.00 0.00 73 1001.8
20260506162229 90 202 1.0 0.0 0.00 0.00 0.00 74 1001.8
20260506162136 90 227 1.0 0.0 0.00 0.00 0.00 73 1001.8
20260506162027 90 214 1.0 0.0 0.00 0.00 0.00 72 1001.8
20260506161927 90 223 1.0 0.0 0.00 0.00 0.00 72 1001.8
20260506161855 90 211 1.0 0.0 0.00 0.00 0.00 73 1001.8
20260506161728 90 221 2.0 0.0 0.00 0.00 0.00 72 1001.8
20260506161650 90 190 2.0 0.0 0.00 0.00 0.00 72 1001.9
20260506161541 90 221 2.0 0.0 0.00 0.00 0.00 72 1001.8
20260506161445 90 225 2.0 0.0 0.00 0.00 0.00 72 1001.8
20260506161337 90 186 2.0 0.0 0.00 0.00 0.00 72 1001.8
20260506161258 90 200 2.0 0.0 0.00 0.00 0.00 72 1001.8
20260506161130 90 180 1.0 0.0 0.00 0.00 0.00 72 1001.8
20260506161027 90 179 1.0 0.0 0.00 0.00 0.00 73 1001.8
20260506160929 90 166 1.0 0.0 0.00 0.00 0.00 73 1001.8
20260506160824 90 140 1.0 0.0 0.00 0.00 0.00 73 1001.8
20260506160718 90 202 1.0 0.0 0.00 0.00 0.00 74 1001.8
20260506160626 89 225 1.0 0.0 0.00 0.00 0.00 74 1001.8
20260506160538 89 215 1.0 0.0 0.00 0.00 0.00 73 1001.8
20260506160440 89 215 1.0 0.0 0.00 0.00 0.00 74 1001.8
20260506160335 89 198 1.0 0.0 0.00 0.00 0.00 74 1001.8
20260506160226 89 198 1.0 0.0 0.00 0.00 0.00 74 1001.8
20260506160130 89 193 1.0 0.0 0.00 0.00 0.00 74 1001.8
20260506160024 89 207 0.0 0.0 0.00 0.00 0.00 74 1001.8
20260506155948 89 209 0.0 0.0 0.00 0.00 0.00 73 1001.8
20260506155820 89 229 1.0 0.0 0.00 0.00 0.00 74 1001.8
20260506155731 89 240 1.0 0.0 0.00 0.00 0.00 74 1001.8
20260506155637 89 166 0.0 0.0 0.00 0.00 0.00 74 1001.8
20260506155532 89 204 0.0 0.0 0.00 0.00 0.00 75 1001.8
20260506155424 89 233 0.0 0.0 0.00 0.00 0.00 74 1001.8
20260506155324 89 200 0.0 0.0 0.00 0.00 0.00 74 1001.8
20260506155216 89 207 0.0 0.0 0.00 0.00 0.00 74 1001.8
20260506155144 89 167 0.0 0.0 0.00 0.00 0.00 75 1001.8
20260506155033 89 209 0.0 0.0 0.00 0.00 0.00 75 1001.8
20260506154936 89 223 1.0 0.0 0.00 0.00 0.00 74 1001.8
20260506154836 89 207 0.0 0.0 0.00 0.00 0.00 75 1001.8
20260506154755 89 212 0.0 0.0 0.00 0.00 0.00 76 1001.8
20260506154625 88 212 0.0 0.0 0.00 0.00 0.00 75 1001.9
20260506154546 88 204 0.0 0.0 0.00 0.00 0.00 75 1001.9
20260506154458 88 96 0.0 0.0 0.00 0.00 0.00 75 1001.9
20260506154338 88 176 0.0 0.0 0.00 0.00 0.00 75 1001.9
20260506154233 88 176 0.0 0.0 0.00 0.00 0.00 75 1001.9
20260506154134 88 217 0.0 0.0 0.00 0.00 0.00 76 1001.9
20260506154029 88 213 0.0 0.0 0.00 0.00 0.00 76 1001.9
20260506153949 88 284 0.0 0.0 0.00 0.00 0.00 76 1001.9
20260506153822 88 180 0.0 0.0 0.00 0.00 0.00 77 1001.9
20260506153745 88 205 0.0 0.0 0.00 0.00 0.00 77 1001.9
20260506153639 87 150 0.0 0.0 0.00 0.00 0.00 77 1001.9
20260506153532 87 207 0.0 0.0 0.00 0.00 0.00 76 1001.9
20260506153426 87 196 0.0 0.0 0.00 0.00 0.00 76 1001.9
20260506153337 87 227 0.0 0.0 0.00 0.00 0.00 77 1001.9
20260506153228 87 167 0.0 0.0 0.00 0.00 0.00 78 1001.9
20260506153129 87 175 1.0 0.0 0.00 0.00 0.00 78 1001.9
20260506153023 87 153 1.0 0.0 0.00 0.00 0.00 77 1001.9
20260506152945 87 148 1.0 0.0 0.00 0.00 0.00 77 1001.9
20260506152837 87 197 0.0 0.0 0.00 0.00 0.00 78 1001.9
20260506152731 87 190 1.0 0.0 0.00 0.00 0.00 78 1001.9
20260506152634 86 203 1.0 0.0 0.00 0.00 0.00 78 1001.9
20260506152528 86 188 1.0 0.0 0.00 0.00 0.00 79 1001.9
20260506152433 86 225 1.0 0.0 0.00 0.00 0.00 79 1001.9
20260506152401 86 226 1.0 0.0 0.00 0.00 0.00 79 1001.9
20260506152230 86 192 1.0 0.0 0.00 0.00 0.00 79 1001.9
20260506152150 86 169 1.0 0.0 0.00 0.00 0.00 79 1001.9
20260506152040 86 169 1.0 0.0 0.00 0.00 0.00 79 1001.9
20260506151942 86 160 1.0 0.0 0.00 0.00 0.00 80 1001.9
20260506151834 86 208 1.0 0.0 0.00 0.00 0.00 79 1001.9
20260506151728 86 208 1.0 0.0 0.00 0.00 0.00 79 1001.9
20260506151631 86 215 1.0 0.0 0.00 0.00 0.00 80 1001.9
20260506151543 86 209 1.0 0.0 0.00 0.00 0.00 80 1001.9
20260506151430 86 173 1.0 0.0 0.00 0.00 0.00 80 1001.9
20260506151321 85 230 1.0 0.0 0.00 0.00 0.00 80 1001.9
20260506151245 85 179 1.0 0.0 0.00 0.00 0.00 80 1001.9
20260506151200 85 208 1.0 0.0 0.00 0.00 0.00 80 1001.9
20260506151040 85 211 1.0 0.0 0.00 0.00 0.00 80 1001.9
20260506150938 85 213 1.0 0.0 0.00 0.00 0.00 81 1001.9
20260506150906 85 213 1.0 0.0 0.00 0.00 0.00 81 1001.9
20260506150808 85 216 1.0 0.0 0.00 0.00 0.00 81 1001.9
20260506150622 84 211 1.0 0.0 0.00 0.00 0.00 82 1001.9
20260506150535 84 217 1.0 0.0 0.00 0.00 0.00 82 1001.9
20260506150436 84 155 1.0 0.0 0.00 0.00 0.00 82 1001.9
20260506150349 84 163 1.0 0.0 0.00 0.00 0.00 83 1001.9
20260506150232 83 165 1.0 0.0 0.00 0.00 0.00 83 1001.9
20260506150127 83 204 1.0 0.0 0.00 0.00 0.00 83 1002.1
20260506150022 83 185 1.0 0.0 0.00 0.00 0.00 84 1002.1
20260506145945 83 202 1.0 0.0 0.00 0.00 0.00 84 1002.1
20260506145909 83 213 1.0 0.0 0.00 0.00 0.00 84 1002.1
20260506145742 83 211 1.0 0.0 0.00 0.00 0.00 84 1002.1
20260506145703 82 205 1.0 0.0 0.00 0.00 0.00 84 1002.1
20260506145534 82 165 1.0 0.0 0.00 0.00 0.00 84 1002.1
20260506145428 82 186 1.0 0.0 0.00 0.00 0.00 85 1002.1
20260506145332 82 212 1.0 0.0 0.00 0.00 0.00 85 1002.1
20260506145223 82 199 0.0 0.0 0.00 0.00 0.00 85 1002.1
20260506145143 82 215 0.0 0.0 0.00 0.00 0.00 85 1002.1
20260506145054 82 204 0.0 0.0 0.00 0.00 0.00 85 1002.1
20260506144936 82 202 0.0 0.0 0.00 0.00 0.00 85 1002.1
20260506144827 82 101 1.0 0.0 0.00 0.00 0.00 85 1002.1
20260506144716 82 205 1.0 0.0 0.00 0.00 0.00 86 1002.1
20260506144644 82 197 1.0 0.0 0.00 0.00 0.00 86 1002.3
20260506144544 81 206 1.0 0.0 0.00 0.00 0.00 86 1002.3
20260506144437 81 205 1.0 0.0 0.00 0.00 0.00 86 1002.3
20260506144342 81 170 1.0 0.0 0.00 0.00 0.00 86 1002.3
20260506144255 81 203 1.0 0.0 0.00 0.00 0.00 86 1002.3
20260506144136 81 221 1.0 0.0 0.00 0.00 0.00 86 1002.3
20260506144032 81 190 1.0 0.0 0.00 0.00 0.00 85 1002.3
20260506143925 81 194 1.0 0.0 0.00 0.00 0.00 86 1002.3
20260506143845 81 167 1.0 0.0 0.00 0.00 0.00 86 1002.3
20260506143747 81 226 1.0 0.0 0.00 0.00 0.00 86 1002.3
20260506143627 81 197 0.0 0.0 0.00 0.00 0.00 86 1002.3
20260506143517 81 219 0.0 0.0 0.00 0.00 0.00 86 1002.3
20260506143425 81 213 0.0 0.0 0.00 0.00 0.00 86 1002.3
20260506143342 81 203 0.0 0.0 0.00 0.00 0.00 86 1002.3
20260506143308 81 162 0.0 0.0 0.00 0.00 0.00 86 1002.3
20260506143122 81 194 0.0 0.0 0.00 0.00 0.00 86 1002.2
20260506143045 81 205 0.0 0.0 0.00 0.00 0.00 86 1002.2
20260506142923 81 217 0.0 0.0 0.00 0.00 0.00 86 1002.2
20260506142847 81 205 0.0 0.0 0.00 0.00 0.00 86 1002.2
20260506142737 81 166 0.0 0.0 0.00 0.00 0.00 86 1002.2
20260506142641 81 224 0.0 0.0 0.00 0.00 0.00 86 1002.2
20260506142520 81 224 0.0 0.0 0.00 0.00 0.00 86 1002.2
20260506142431 81 224 0.0 0.0 0.00 0.00 0.00 86 1002.2
20260506142335 81 224 0.0 0.0 0.00 0.00 0.00 86 1002.2
20260506142235 81 200 0.0 0.0 0.00 0.00 0.00 86 1002.2
20260506142200 81 200 0.0 0.0 0.00 0.00 0.00 86 1002.2
20260506142030 81 200 0.0 0.0 0.00 0.00 0.00 86 1002.2
20260506141926 81 204 0.0 0.0 0.00 0.00 0.00 86 1002.2
20260506141847 81 184 0.0 0.0 0.00 0.00 0.00 86 1002.2
20260506141748 81 180 0.0 0.0 0.00 0.00 0.00 86 1002.2
20260506141621 81 157 0.0 0.0 0.00 0.00 0.00 86 1002.3
20260506141534 81 194 0.0 0.0 0.00 0.00 0.00 86 1002.3
20260506141438 81 202 0.0 0.0 0.00 0.00 0.00 86 1002.3
20260506141335 81 202 0.0 0.0 0.00 0.00 0.00 86 1002.3
20260506141227 81 240 0.0 0.0 0.00 0.00 0.00 86 1002.3
20260506141131 81 239 0.0 0.0 0.00 0.00 0.00 87 1002.3
20260506141023 81 154 1.0 0.0 0.00 0.00 0.00 87 1002.3
20260506140946 81 225 1.0 0.0 0.00 0.00 0.00 87 1002.3
20260506140838 81 225 1.0 0.0 0.00 0.00 0.00 87 1002.3
20260506140739 81 208 1.0 0.0 0.00 0.00 0.00 87 1002.3
20260506140620 81 208 1.0 0.0 0.00 0.00 0.00 87 1002.3
20260506140533 81 208 1.0 0.0 0.00 0.00 0.00 87 1002.3
20260506140433 81 208 1.0 0.0 0.00 0.00 0.00 87 1002.3
20260506140328 81 205 1.0 0.0 0.00 0.00 0.00 87 1002.3
20260506140220 81 162 1.0 0.0 0.00 0.00 0.00 87 1002.3
20260506140144 81 209 1.0 0.0 0.00 0.00 0.00 87 1002.3
20260506140045 81 153 1.0 0.0 0.00 0.00 0.00 87 1002.1
20260506135926 81 171 1.0 0.0 0.00 0.00 0.00 87 1002.1
20260506135848 81 171 1.0 0.0 0.00 0.00 0.00 87 1002.1
20260506135719 81 253 0.0 0.0 0.00 0.00 0.00 87 1002.1
20260506135629 81 188 0.0 0.0 0.00 0.00 0.00 87 1002.1
20260506135554 81 196 0.0 0.0 0.00 0.00 0.00 87 1002.1
20260506135424 81 194 0.0 0.0 0.00 0.00 0.00 87 1002.1
20260506135348 81 190 0.0 0.0 0.00 0.00 0.00 87 1002.1
20260506135309 81 217 0.0 0.0 0.00 0.00 0.00 87 1002.1
20260506135159 81 217 0.0 0.0 0.00 0.00 0.00 87 1002.1
20260506135046 81 209 0.0 0.0 0.00 0.00 0.00 87 1002.1
20260506134937 81 180 0.0 0.0 0.00 0.00 0.00 87 1002.1
20260506134857 81 177 0.0 0.0 0.00 0.00 0.00 87 1002.1
20260506134726 81 175 1.0 0.0 0.00 0.00 0.00 87 1002.1
20260506134646 81 267 1.0 0.0 0.00 0.00 0.00 87 1002.1
20260506134600 81 276 0.0 0.0 0.00 0.00 0.00 87 1002.0
20260506134442 81 165 0.0 0.0 0.00 0.00 0.00 87 1002.0
20260506134401 81 196 0.0 0.0 0.00 0.00 0.00 87 1002.0
20260506134239 81 194 0.0 0.0 0.00 0.00 0.00 87 1002.0
20260506134142 81 176 0.0 0.0 0.00 0.00 0.00 87 1002.0
20260506134043 81 121 0.0 0.0 0.00 0.00 0.00 87 1002.0
20260506133934 81 144 0.0 0.0 0.00 0.00 0.00 87 1002.0
20260506133825 81 203 0.0 0.0 0.00 0.00 0.00 87 1001.9
20260506133725 80 238 0.0 0.0 0.00 0.00 0.00 87 1001.9
20260506133643 80 198 0.0 0.0 0.00 0.00 0.00 88 1001.9
20260506133546 81 155 0.0 0.0 0.00 0.00 0.00 88 1002.0
20260506133508 80 221 0.0 0.0 0.00 0.00 0.00 88 1001.9
20260506133326 80 211 0.0 0.0 0.00 0.00 0.00 88 1001.9
20260506133225 80 209 0.0 0.0 0.00 0.00 0.00 88 1001.9
20260506133146 80 165 0.0 0.0 0.00 0.00 0.00 88 1002.0
20260506133050 80 212 0.0 0.0 0.00 0.00 0.00 88 1002.0
20260506132940 80 202 0.0 0.0 0.00 0.00 0.00 88 1002.0
20260506132836 80 192 0.0 0.0 0.00 0.00 0.00 88 1002.0
20260506132726 80 212 0.0 0.0 0.00 0.00 0.00 88 1002.0
20260506132633 80 212 0.0 0.0 0.00 0.00 0.00 88 1002.0
20260506132531 80 212 0.0 0.0 0.00 0.00 0.00 88 1002.0
20260506132422 80 212 0.0 0.0 0.00 0.00 0.00 88 1002.0
20260506132347 80 212 0.0 0.0 0.00 0.00 0.00 88 1002.0
20260506132220 80 212 0.0 0.0 0.00 0.00 0.00 88 1002.0
20260506132123 80 212 0.0 0.0 0.00 0.00 0.00 88 1002.0
20260506132024 80 194 0.0 0.0 0.00 0.00 0.00 88 1002.0
20260506131935 80 194 0.0 0.0 0.00 0.00 0.00 88 1002.0
20260506131840 80 194 0.0 0.0 0.00 0.00 0.00 88 1002.0
20260506131732 80 194 0.0 0.0 0.00 0.00 0.00 88 1002.0
20260506131623 80 194 0.0 0.0 0.00 0.00 0.00 88 1001.9
20260506131528 80 205 0.0 0.0 0.00 0.00 0.00 88 1001.9
20260506131421 80 157 0.0 0.0 0.00 0.00 0.00 88 1001.9
20260506131344 80 221 0.0 0.0 0.00 0.00 0.00 88 1001.9
20260506131240 80 199 0.0 0.0 0.00 0.00 0.00 88 1001.9
20260506131118 80 217 0.0 0.0 0.00 0.00 0.00 88 1001.9
20260506131046 80 214 0.0 0.0 0.00 0.00 0.00 88 1001.9
20260506131008 80 253 0.0 0.0 0.00 0.00 0.00 88 1001.9
20260506130902 80 210 0.0 0.0 0.00 0.00 0.00 88 1001.9
20260506130743 80 211 0.0 0.0 0.00 0.00 0.00 88 1001.9
20260506130657 80 211 0.0 0.0 0.00 0.00 0.00 88 1001.9
20260506130537 80 211 0.0 0.0 0.00 0.00 0.00 88 1001.9
20260506130429 80 200 0.0 0.0 0.00 0.00 0.00 88 1001.9
20260506130327 80 200 0.0 0.0 0.00 0.00 0.00 88 1001.9
20260506130231 80 207 0.0 0.0 0.00 0.00 0.00 88 1001.9
20260506130122 80 207 0.0 0.0 0.00 0.00 0.00 88 1001.9
20260506130046 80 207 0.0 0.0 0.00 0.00 0.00 88 1001.9
20260506125938 80 207 0.0 0.0 0.00 0.00 0.00 88 1001.9
20260506125833 80 207 0.0 0.0 0.00 0.00 0.00 88 1001.9
20260506125735 80 140 0.0 0.0 0.00 0.00 0.00 88 1001.9
20260506125628 80 140 0.0 0.0 0.00 0.00 0.00 88 1001.9
20260506125525 80 140 0.0 0.0 0.00 0.00 0.00 88 1001.9
20260506125427 80 140 0.0 0.0 0.00 0.00 0.00 88 1001.9
20260506125322 80 140 0.0 0.0 0.00 0.00 0.00 88 1001.9
20260506125246 80 214 0.0 0.0 0.00 0.00 0.00 88 1001.9
20260506125202 80 214 0.0 0.0 0.00 0.00 0.00 88 1001.9
20260506125043 80 214 0.0 0.0 0.00 0.00 0.00 88 1001.9
20260506124917 80 219 0.0 0.0 0.00 0.00 0.00 88 1001.9
20260506124850 80 219 0.0 0.0 0.00 0.00 0.00 88 1001.9
20260506124804 80 219 0.0 0.0 0.00 0.00 0.00 88 1001.9
20260506124643 80 219 0.0 0.0 0.00 0.00 0.00 88 1001.5
20260506124534 80 219 0.0 0.0 0.00 0.00 0.00 88 1001.5
20260506124438 80 219 0.0 0.0 0.00 0.00 0.00 88 1001.5
20260506124334 80 219 0.0 0.0 0.00 0.00 0.00 88 1001.5
20260506124226 80 219 0.0 0.0 0.00 0.00 0.00 88 1001.5
20260506124128 80 219 0.0 0.0 0.00 0.00 0.00 88 1001.5
20260506124027 80 219 0.0 0.0 0.00 0.00 0.00 88 1001.5
20260506123948 80 219 0.0 0.0 0.00 0.00 0.00 88 1001.5
20260506123823 80 219 0.0 0.0 0.00 0.00 0.00 88 1001.5
20260506123741 80 219 0.0 0.0 0.00 0.00 0.00 88 1001.5
20260506123703 80 219 0.0 0.0 0.00 0.00 0.00 88 1001.5
20260506123604 80 219 0.0 0.0 0.00 0.00 0.00 88 1001.5
20260506123436 80 219 0.0 0.0 0.00 0.00 0.00 88 1001.5
20260506123327 80 172 0.0 0.0 0.00 0.00 0.00 88 1001.5
20260506123234 80 190 0.0 0.0 0.00 0.00 0.00 88 1001.5
20260506123140 80 203 0.0 0.0 0.00 0.00 0.00 88 1001.5
20260506123041 80 200 0.0 0.0 0.00 0.00 0.00 88 1001.3
20260506122920 80 165 0.0 0.0 0.00 0.00 0.00 88 1001.3
20260506122835 80 182 0.0 0.0 0.00 0.00 0.00 88 1001.3
20260506122801 80 182 0.0 0.0 0.00 0.00 0.00 88 1001.3
20260506122631 80 182 0.0 0.0 0.00 0.00 0.00 88 1001.3
20260506122535 80 182 0.0 0.0 0.00 0.00 0.00 88 1001.3
20260506122430 80 151 0.0 0.0 0.00 0.00 0.00 88 1001.3
20260506122323 80 151 0.0 0.0 0.00 0.00 0.00 88 1001.3
20260506122224 80 169 0.0 0.0 0.00 0.00 0.00 88 1001.3
20260506122140 80 169 0.0 0.0 0.00 0.00 0.00 88 1001.3
20260506122040 80 169 0.0 0.0 0.00 0.00 0.00 88 1001.3
20260506121955 80 169 0.0 0.0 0.00 0.00 0.00 88 1001.3
20260506121854 80 169 0.0 0.0 0.00 0.00 0.00 88 1001.3
20260506121725 80 169 0.0 0.0 0.00 0.00 0.00 88 1001.3
20260506121626 80 189 0.0 0.0 0.00 0.00 0.00 88 1000.9
20260506121539 80 189 0.0 0.0 0.00 0.00 0.00 88 1000.9
20260506121441 80 189 0.0 0.0 0.00 0.00 0.00 88 1000.9
20260506121334 80 189 0.0 0.0 0.00 0.00 0.00 88 1000.9
20260506121227 80 189 0.0 0.0 0.00 0.00 0.00 88 1000.9
20260506121128 80 189 0.0 0.0 0.00 0.00 0.00 88 1000.9
20260506121024 80 189 0.0 0.0 0.00 0.00 0.00 88 1000.9
20260506120930 80 189 0.0 0.0 0.00 0.00 0.00 88 1000.9
20260506120844 80 189 0.0 0.0 0.00 0.00 0.00 88 1000.9
20260506120744 80 161 0.0 0.0 0.00 0.00 0.00 87 1000.9
20260506120647 80 161 0.0 0.0 0.00 0.00 0.00 87 1000.9
20260506120523 80 161 0.0 0.0 0.00 0.00 0.00 87 1000.9
20260506120439 80 161 0.0 0.0 0.00 0.00 0.00 87 1000.9
20260506120340 80 179 0.0 0.0 0.00 0.00 0.00 87 1000.9
20260506120242 80 179 0.0 0.0 0.00 0.00 0.00 87 1000.9
20260506120143 80 179 0.0 0.0 0.00 0.00 0.00 87 1000.9
20260506120035 80 179 0.0 0.0 0.00 0.00 0.00 87 1000.7
20260506115925 80 103 0.0 0.0 0.00 0.00 0.00 87 1000.7
20260506115826 80 202 0.0 0.0 0.00 0.00 0.00 87 1000.7
20260506115719 80 202 0.0 0.0 0.00 0.00 0.00 87 1000.7
20260506115645 80 202 0.0 0.0 0.00 0.00 0.00 87 1000.7
20260506115521 80 202 0.0 0.0 0.00 0.00 0.00 87 1000.7
20260506115434 80 202 0.0 0.0 0.00 0.00 0.00 87 1000.7
20260506115339 80 202 0.0 0.0 0.00 0.00 0.00 87 1000.7
20260506115251 80 202 0.0 0.0 0.00 0.00 0.00 87 1000.7
20260506115132 80 213 0.0 0.0 0.00 0.00 0.00 87 1000.7
20260506115027 80 196 0.0 0.0 0.00 0.00 0.00 87 1000.7
20260506114949 80 196 0.0 0.0 0.00 0.00 0.00 87 1000.7
20260506114821 80 206 0.0 0.0 0.00 0.00 0.00 87 1000.7
20260506114738 80 202 0.0 0.0 0.00 0.00 0.00 87 1000.7
20260506114637 80 182 0.0 0.0 0.00 0.00 0.00 87 1000.7
20260506114532 80 173 0.0 0.0 0.00 0.00 0.00 87 1000.4
20260506114453 80 236 0.0 0.0 0.00 0.00 0.00 87 1000.4
20260506114344 80 236 0.0 0.0 0.00 0.00 0.00 87 1000.4
20260506114242 80 161 0.0 0.0 0.00 0.00 0.00 87 1000.4
20260506114155 80 213 0.0 0.0 0.00 0.00 0.00 87 1000.4
20260506114036 80 186 0.0 0.0 0.00 0.00 0.00 87 1000.4
20260506113932 80 186 0.0 0.0 0.00 0.00 0.00 88 1000.4
20260506113832 80 147 0.0 0.0 0.00 0.00 0.00 88 1000.4
20260506113723 80 194 0.0 0.0 0.00 0.00 0.00 88 1000.4
20260506113647 80 194 0.0 0.0 0.00 0.00 0.00 87 1000.4
20260506113602 80 183 0.0 0.0 0.00 0.00 0.00 88 1000.4
20260506113442 80 218 0.0 0.0 0.00 0.00 0.00 87 1000.4
20260506113334 80 242 0.0 0.0 0.00 0.00 0.00 87 1000.4
20260506113226 80 207 0.0 0.0 0.00 0.00 0.00 87 1000.4
20260506113135 80 200 0.0 0.0 0.00 0.00 0.00 87 1000.4
20260506113027 80 213 0.0 0.0 0.00 0.00 0.00 87 1000.2
20260506112949 80 204 0.0 0.0 0.00 0.00 0.00 87 1000.2
20260506112820 80 207 0.0 0.0 0.00 0.00 0.00 87 1000.2
20260506112738 80 220 0.0 0.0 0.00 0.00 0.00 87 1000.2
20260506112639 80 220 0.0 0.0 0.00 0.00 0.00 87 1000.2
20260506112519 80 220 1.0 0.0 0.00 0.00 0.00 87 1000.2
20260506112432 80 227 1.0 0.0 0.00 0.00 0.00 87 1000.2
20260506112332 80 227 1.0 0.0 0.00 0.00 0.00 87 1000.2
20260506112250 80 227 1.0 0.0 0.00 0.00 0.00 87 1000.2
20260506112211 80 227 1.0 0.0 0.00 0.00 0.00 87 1000.2
20260506112112 80 148 1.0 0.0 0.00 0.00 0.00 87 1000.2
20260506111922 80 194 1.0 0.0 0.00 0.00 0.00 87 1000.2
20260506111838 80 194 1.0 0.0 0.00 0.00 0.00 87 1000.2
20260506111739 80 188 2.0 0.0 0.00 0.00 0.00 87 1000.2
20260506111635 80 206 1.0 0.0 0.00 0.00 0.00 87 1000.3
20260506111538 80 220 1.0 0.0 0.00 0.00 0.00 87 1000.1
20260506111430 80 176 1.0 0.0 0.00 0.00 0.00 87 1000.1
20260506111351 80 196 1.0 0.0 0.00 0.00 0.00 87 1000.1
20260506111221 80 167 1.0 0.0 0.00 0.00 0.00 87 1000.1
20260506111143 80 196 1.0 0.0 0.00 0.00 0.00 87 1000.1
20260506111059 80 165 1.0 0.0 0.00 0.00 0.00 87 1000.1
20260506110940 80 202 1.0 0.0 0.00 0.00 0.00 87 1000.1
20260506110836 80 198 1.0 0.0 0.00 0.00 0.00 87 1000.1
20260506110738 80 213 1.0 0.0 0.00 0.00 0.00 87 1000.1
20260506110634 80 209 1.0 0.0 0.00 0.00 0.00 87 1000.1
20260506110531 80 202 1.0 0.0 0.00 0.00 0.00 87 1000.1
20260506110434 80 202 1.0 0.0 0.00 0.00 0.00 87 1000.1
20260506110328 80 203 1.0 0.0 0.00 0.00 0.00 87 1000.1
20260506110250 80 201 1.0 0.0 0.00 0.00 0.00 87 1000.1
20260506110126 80 168 1.0 0.0 0.00 0.00 0.00 87 999.8
20260506110041 80 214 1.0 0.0 0.00 0.00 0.00 87 999.8
20260506105943 80 188 1.0 0.0 0.00 0.00 0.00 87 999.8
20260506105835 80 185 2.0 0.0 0.00 0.00 0.00 87 999.8
20260506105727 80 210 2.0 0.0 0.00 0.00 0.00 87 999.8
20260506105629 80 182 2.0 0.0 0.00 0.00 0.00 87 999.8